ECMWFFLT1_925_thetae_000.txt.gz
Theta_e
304 298 296 297 297 297 297 296 297 296 296 296 295 295 294 294 293 292 292 291 291 290 290 290 289 289 289 288 288 288 287 287 286 286 286 286 285 285 285 285 285 284 283 282 281 280 280 280 280 280 279 279 279 279 280 280 280 280 281 281 281 281
303 298 297 297 297 297 297 296 296 296 296 296 295 295 294 293 293 292 291 291 290 290 289 289 289 289 288 288 287 287 287 287 286 286 286 285 285 285 285 285 285 284 282 281 281 280 280 280 279 279 279 279 279 279 279 279 279 280 280 280 280 280
301 297 297 298 297 297 297 296 296 296 296 295 295 294 294 293 293 292 291 291 290 289 289 289 288 288 288 287 287 287 286 286 286 286 285 285 285 285 285 285 284 282 281 281 280 280 280 279 279 279 279 279 279 278 278 279 279 279 279 279 279 279
302 298 297 297 296 296 296 295 296 296 295 295 294 294 293 293 292 291 291 290 289 289 289 288 288 287 287 286 286 286 286 285 285 285 285 284 285 285 285 284 283 281 281 280 280 279 279 279 279 278 278 278 278 278 278 278 278 277 277 277 277 277
302 298 296 296 296 296 295 295 295 295 295 294 294 293 293 292 292 291 290 290 289 289 288 287 287 286 286 286 285 285 285 285 285 284 284 284 284 284 284 283 282 281 280 280 279 279 279 278 278 278 278 277 277 277 277 277 277 276 276 275 275 275
302 300 299 297 295 295 295 294 294 294 294 294 293 293 292 292 291 290 290 289 289 288 287 287 286 286 285 285 285 284 284 284 284 284 284 284 284 283 283 281 281 280 280 279 279 278 278 278 278 278 277 277 276 276 276 276 275 275 274 274 274 274
303 302 301 297 294 294 295 294 294 294 294 294 293 293 292 291 290 290 289 289 288 287 287 286 285 285 285 284 284 284 284 284 284 284 284 284 283 282 281 280 280 279 279 279 278 278 278 277 277 277 276 276 276 275 275 274 274 273 273 273 273 272
305 302 301 297 294 294 294 294 294 294 293 293 293 292 292 291 290 290 289 288 287 287 286 285 285 285 284 284 284 283 283 283 283 283 283 283 282 282 281 280 279 279 278 278 278 277 277 277 276 276 276 275 275 274 273 273 273 272 272 272 271 271
306 303 302 298 294 294 294 294 294 293 293 293 292 292 292 291 290 289 288 288 287 286 286 285 285 284 284 283 283 283 283 283 283 283 283 282 282 281 280 279 279 278 278 277 277 277 276 276 275 275 275 274 273 273 272 272 272 271 271 271 271 271
307 306 304 300 295 294 294 294 293 293 293 293 292 292 291 290 290 289 288 287 286 286 285 285 284 284 283 283 283 282 282 282 283 283 282 281 281 280 279 279 278 277 277 277 276 276 275 275 275 275 274 273 273 272 272 271 271 271 271 271 271 271
309 307 305 301 296 294 293 293 293 293 293 292 292 291 291 290 289 288 287 287 286 286 285 284 284 283 283 282 282 282 282 282 282 282 281 280 280 279 278 278 277 277 276 276 276 275 274 274 275 274 273 273 272 272 271 271 271 271 271 271 271 272
310 308 305 302 299 296 293 293 293 292 292 292 291 291 290 290 288 288 287 286 286 285 285 284 283 283 282 282 282 281 281 281 281 280 280 279 278 278 277 277 276 276 276 276 275 274 274 274 275 274 273 273 272 272 271 271 272 271 272 272 272 272
311 308 305 304 301 296 293 293 293 292 292 291 291 291 290 289 288 287 286 286 285 285 284 283 283 282 282 281 281 280 280 280 280 279 279 278 277 277 277 276 276 276 276 275 274 274 274 274 274 274 273 273 274 273 273 272 272 272 272 273 273 273
312 309 307 305 301 295 294 294 293 292 292 291 291 290 289 288 287 286 286 286 285 284 284 283 282 281 281 280 280 279 279 279 279 278 277 277 276 276 276 276 276 276 275 275 273 273 274 274 274 273 273 274 274 274 274 273 273 273 273 273 273 273
313 312 309 306 300 296 295 295 293 292 292 291 290 289 288 287 287 286 286 285 284 284 283 282 281 281 280 279 279 278 278 278 277 277 276 276 276 276 276 275 275 275 274 273 273 273 274 274 273 273 273 274 274 274 274 274 274 274 274 274 273 273
313 312 308 302 300 298 297 296 294 293 292 291 290 289 287 287 286 285 285 284 283 283 282 281 280 279 278 278 277 277 277 276 276 275 275 275 275 275 275 275 274 274 273 272 272 273 274 274 273 273 273 273 274 274 274 274 274 274 274 273 273 273
314 315 309 301 300 300 297 295 294 293 292 291 289 288 287 286 285 285 284 283 282 281 281 280 279 278 277 276 276 276 275 275 274 274 274 275 275 275 274 274 274 274 273 272 272 273 273 273 272 272 272 273 274 274 274 275 274 273 273 273 273 273
311 312 308 302 300 299 296 295 295 293 291 290 288 287 286 285 284 284 283 282 281 280 280 279 278 276 276 275 275 275 274 274 274 274 274 274 274 274 274 274 274 274 273 272 272 272 273 273 272 271 272 273 273 274 274 274 273 273 273 273 273 273
306 306 304 300 299 298 296 295 293 292 289 287 287 286 285 284 284 283 282 281 280 280 279 278 277 275 275 275 275 274 274 274 274 274 274 274 273 273 273 273 273 273 273 272 271 272 272 272 271 271 271 272 273 274 274 273 273 273 273 273 273 273
304 304 302 299 296 296 295 294 292 290 287 285 285 285 284 284 283 282 281 280 280 279 278 277 277 276 275 275 275 274 274 273 273 274 274 274 273 273 273 273 273 272 272 271 271 271 271 271 271 270 271 272 273 274 274 273 273 273 273 274 274 274
300 300 298 295 294 293 293 292 290 288 286 284 284 284 283 283 282 282 281 280 279 278 277 277 276 276 275 274 274 274 274 273 273 273 273 273 273 273 273 272 272 271 271 270 270 270 269 270 270 270 271 272 273 273 274 273 273 274 274 274 274 274
300 301 297 293 292 292 291 290 289 286 285 284 283 283 283 283 282 281 280 279 278 277 277 276 276 276 275 274 274 274 274 274 273 272 272 272 272 272 272 272 272 271 270 270 269 269 269 269 270 270 271 272 273 273 274 273 274 274 274 274 275 275
298 300 297 294 293 292 290 289 287 285 284 283 282 282 283 283 282 281 279 278 277 276 276 275 276 276 275 274 274 274 273 273 272 272 272 272 271 271 271 271 271 270 270 269 269 269 269 269 270 270 271 272 272 273 273 274 274 274 274 275 275 274
296 295 293 293 293 291 289 288 286 285 283 282 282 283 283 282 281 280 278 277 276 276 275 275 275 275 274 273 274 273 271 271 272 272 272 271 271 271 270 270 270 270 269 269 269 269 269 270 270 270 270 271 272 272 273 274 274 275 275 275 274 273
299 293 291 292 291 290 289 287 285 284 283 282 282 282 282 281 280 278 277 276 275 274 274 273 273 273 273 272 272 272 271 270 271 271 271 271 271 270 269 269 269 269 268 269 269 269 270 270 270 270 270 271 271 272 273 274 274 274 274 274 273 273
299 292 290 290 289 288 288 287 285 284 282 282 282 282 281 280 278 277 275 275 274 273 273 272 272 271 271 271 271 272 271 269 270 270 270 271 271 270 268 268 268 268 268 269 269 270 270 270 269 269 270 270 271 272 273 274 274 274 274 273 273 272
296 291 288 288 287 287 287 286 286 284 283 282 282 280 279 278 276 275 274 273 273 272 271 271 270 270 270 270 271 272 270 269 270 269 269 270 270 269 268 268 268 268 269 269 270 270 270 269 269 269 270 271 271 272 273 273 273 273 273 273 272 271
293 292 291 288 286 286 286 286 286 285 283 282 281 279 278 277 275 274 273 272 271 270 270 269 269 269 269 270 271 273 272 271 271 269 268 269 269 268 269 269 269 269 269 270 270 270 270 269 269 269 270 271 272 272 272 272 272 272 272 272 271 271
296 298 297 291 285 284 285 285 285 285 283 282 280 278 277 276 274 273 272 271 270 269 268 268 267 267 268 269 270 271 272 272 271 270 269 268 268 268 269 269 269 269 270 270 270 270 270 269 269 270 270 271 272 273 272 272 272 272 271 271 271 271
298 298 297 292 286 284 284 284 284 284 283 281 279 278 276 275 274 272 271 270 269 268 268 268 267 267 267 268 269 270 270 270 271 270 270 269 269 269 269 269 270 270 270 270 270 270 270 270 270 270 271 272 273 273 273 272 272 272 271 271 271 270
298 297 295 290 286 285 284 283 283 283 282 280 279 277 275 274 273 272 270 269 268 268 268 267 267 267 267 267 268 269 270 270 270 270 270 270 270 271 270 269 270 270 270 270 270 269 270 270 270 271 272 273 273 273 273 273 272 271 271 271 271 269
291 292 291 288 286 285 283 282 282 282 281 280 278 277 275 273 272 271 269 268 268 268 267 267 267 267 267 268 268 268 268 269 270 270 270 270 270 270 271 270 270 270 270 269 270 270 270 270 271 272 273 272 272 272 272 272 271 271 271 271 269 267
287 288 288 287 286 284 282 281 281 281 279 278 277 276 275 273 271 270 269 268 269 268 267 267 267 267 267 268 268 268 268 268 269 270 270 270 270 270 271 271 271 271 270 269 270 270 270 271 272 272 272 272 272 272 272 271 271 271 270 269 268 266
290 289 289 287 285 283 281 281 280 279 278 277 276 275 274 273 272 270 269 269 269 268 267 267 267 267 267 267 267 268 268 268 269 269 270 270 270 271 272 272 272 272 271 271 270 270 270 271 272 271 271 271 271 271 270 270 270 270 269 268 266 265
291 289 288 287 286 283 281 280 279 278 277 276 275 275 274 273 272 271 270 269 268 268 268 268 267 267 267 267 267 268 268 268 269 270 270 271 271 272 272 272 272 272 272 272 271 271 271 271 271 271 271 270 270 270 269 268 268 268 267 266 265 264
291 290 288 287 285 283 280 279 279 278 277 276 275 274 273 273 272 271 270 269 268 268 268 268 267 267 267 267 267 268 268 268 269 270 270 270 271 272 272 271 271 271 271 271 271 271 271 271 271 270 270 270 269 268 268 268 268 267 267 266 264 263
291 289 288 287 285 282 279 279 279 278 276 275 274 274 273 273 272 271 270 269 269 269 268 268 267 267 268 268 268 268 268 268 269 269 269 269 270 271 270 269 270 270 270 270 270 271 271 270 270 269 269 268 267 267 267 267 267 267 266 265 264 262
290 289 288 286 283 280 279 279 278 277 275 274 273 273 273 272 271 271 270 269 269 269 268 268 268 268 268 269 268 268 268 268 269 269 268 268 269 269 267 266 267 268 268 268 269 269 269 269 269 268 267 267 266 266 266 267 266 264 264 263 262 261

ECMWFFLT1_925_thetae_003.txt.gz
Theta_e
302 297 295 296 296 296 296 296 296 296 296 295 295 295 295 294 294 294 293 293 293 292 292 292 292 291 291 291 290 290 290 290 289 289 289 288 288 288 287 287 286 286 286 285 285 284 284 283 283 283 283 282 282 281 281 281 281 281 281 281 281 281
301 297 296 296 296 296 296 295 295 295 295 295 295 295 294 294 294 294 293 293 293 292 292 291 291 291 291 291 290 290 290 289 289 289 288 288 288 287 287 287 286 286 286 285 285 284 283 283 283 283 282 282 281 281 281 280 280 280 280 280 280 280
301 296 296 297 296 296 295 295 295 295 295 295 295 294 294 294 294 294 293 293 292 292 291 291 291 291 291 290 290 290 289 289 289 288 288 288 287 287 287 286 286 286 286 285 285 284 283 283 283 282 282 281 281 281 280 280 280 279 280 280 280 280
302 297 296 297 296 295 295 295 295 295 295 295 295 294 294 294 294 294 293 293 292 292 291 291 290 290 290 290 289 289 289 288 288 288 288 287 287 287 286 286 286 286 285 285 285 284 283 283 282 282 281 281 280 280 279 279 279 279 279 279 279 279
302 298 296 296 295 295 295 294 294 294 295 295 294 294 294 294 294 293 293 292 292 291 291 290 290 290 289 289 289 288 288 288 287 287 287 287 286 286 286 286 286 285 285 285 284 283 282 282 282 281 281 280 280 279 279 279 278 278 278 278 278 277
300 300 299 297 295 295 294 294 294 294 295 295 294 294 294 294 293 293 292 292 291 291 290 290 290 289 289 289 288 288 287 287 286 286 286 286 286 285 285 285 285 285 285 284 283 282 282 281 281 280 280 280 280 279 279 278 278 278 277 277 277 276
303 302 302 298 295 295 295 294 294 294 294 295 295 294 294 294 293 293 292 292 291 290 290 290 289 289 288 288 288 287 287 286 286 286 285 285 285 285 284 284 284 284 284 284 283 282 281 281 280 280 280 280 280 279 279 278 278 277 277 276 276 275
306 303 302 299 296 295 295 294 294 294 294 295 295 295 294 294 293 293 292 292 291 290 289 289 289 288 288 288 287 287 286 286 285 285 285 285 284 284 283 283 283 284 284 283 282 282 281 281 280 280 280 280 280 279 279 278 277 277 276 275 275 274
307 305 303 299 296 296 296 295 295 294 294 294 295 294 294 294 293 293 292 291 290 290 289 289 288 288 288 287 287 286 285 285 285 285 284 284 284 283 283 283 283 283 283 283 282 281 281 280 280 280 280 280 279 279 278 277 277 276 275 274 274 273
309 307 304 300 296 296 296 295 295 295 294 294 294 294 294 293 293 292 291 291 290 289 289 288 288 287 287 286 286 285 285 284 284 284 284 283 283 283 283 283 283 282 282 281 281 280 280 279 279 280 280 280 279 279 278 277 276 275 274 273 273 273
312 309 305 301 297 295 294 295 295 294 294 294 294 293 293 293 292 291 291 290 289 289 289 288 287 287 286 285 285 284 284 284 283 283 283 283 282 282 282 283 282 282 281 280 279 279 279 279 280 280 280 280 279 278 277 276 275 274 273 273 272 272
312 309 305 302 299 296 294 294 294 294 293 294 294 293 293 293 292 291 290 289 289 289 288 287 287 286 285 285 284 284 283 283 283 282 282 282 282 282 282 282 281 281 280 279 279 279 279 279 280 280 280 279 279 278 277 275 274 273 273 272 272 272
311 308 305 302 300 297 295 294 294 294 294 293 293 293 292 292 291 290 290 289 289 288 287 287 286 285 285 284 284 283 283 282 282 282 282 281 281 281 281 281 280 280 280 279 279 279 279 280 280 280 279 278 278 277 276 274 273 273 273 272 272 272
310 309 306 304 301 296 295 296 295 294 293 293 293 293 292 291 290 290 289 289 288 288 287 286 285 284 284 283 283 283 282 282 281 281 281 281 281 280 280 280 280 279 279 279 279 279 280 280 280 279 278 277 277 276 275 274 274 273 273 273 273 273
309 309 307 305 302 298 297 297 295 294 294 294 293 292 291 290 290 289 289 288 288 287 286 285 285 284 283 283 283 282 281 281 281 281 280 280 280 279 279 279 278 278 278 279 279 279 279 279 279 278 277 277 276 276 276 275 274 274 274 274 274 274
308 307 305 303 302 301 301 299 297 297 296 294 293 292 291 290 290 289 288 288 287 286 286 285 284 283 283 282 282 281 281 280 280 280 279 279 278 278 277 277 277 278 278 279 279 279 279 279 278 277 276 276 276 277 277 276 275 275 274 274 274 274
309 309 306 302 301 302 301 300 298 297 295 293 292 291 290 289 289 288 288 287 286 286 285 284 284 283 282 281 281 280 279 279 279 278 278 278 277 277 277 277 277 277 278 278 279 279 279 278 277 276 276 276 276 277 277 276 275 275 275 274 274 274
308 309 306 303 302 302 300 300 299 296 294 293 291 290 289 289 288 287 287 286 286 285 284 284 283 282 281 280 279 279 278 278 278 277 277 277 276 276 276 276 276 277 278 278 278 278 278 277 276 275 275 275 276 276 276 276 275 275 274 274 273 273
303 304 304 303 303 302 301 300 297 294 292 291 290 289 288 288 287 286 286 286 285 284 284 283 282 281 280 279 278 278 278 277 277 276 276 276 275 274 275 276 277 277 278 278 278 278 278 276 275 274 274 275 276 276 276 275 275 274 274 273 273 273
301 302 302 303 302 300 300 297 295 293 290 289 288 288 287 287 286 286 286 285 285 284 283 283 282 281 279 278 278 277 277 276 276 275 275 275 274 274 275 276 276 276 277 278 278 278 277 275 274 273 274 274 275 275 275 274 274 274 273 273 273 273
298 299 298 297 296 295 295 295 293 291 289 288 287 287 286 286 286 286 285 285 284 284 283 282 281 280 279 278 277 277 276 276 275 275 274 274 274 274 274 275 275 275 276 277 277 276 275 274 273 273 273 273 274 275 274 274 274 273 273 273 273 274
299 299 296 293 293 293 293 293 292 290 288 287 286 286 286 286 286 286 285 285 284 283 282 282 281 279 278 277 277 276 276 275 275 274 273 273 273 273 273 273 273 273 274 275 275 274 273 273 272 272 272 273 274 275 275 274 274 273 273 273 274 274
298 297 295 293 293 293 293 292 290 289 287 286 285 285 286 287 286 286 285 284 283 282 281 280 280 279 278 277 277 276 275 274 274 273 273 272 272 272 271 271 272 272 272 272 272 272 271 272 272 272 272 273 274 275 275 274 273 273 273 274 274 275
297 295 294 293 293 293 293 291 290 288 286 285 285 286 286 286 286 285 284 283 282 281 280 279 278 278 277 276 276 275 274 273 273 272 272 272 271 271 271 270 271 271 270 270 270 270 271 271 272 272 272 273 274 274 274 274 274 274 274 275 275 274
297 295 294 294 293 293 293 291 289 286 284 284 286 286 286 286 285 284 283 282 281 280 279 278 277 277 276 275 275 274 273 272 272 271 271 271 271 270 270 270 270 269 269 268 269 270 270 271 271 272 272 272 273 274 274 274 275 275 275 275 274 274
297 296 296 295 293 292 292 291 289 285 284 286 287 286 285 285 285 283 282 281 280 279 278 277 276 276 275 275 274 273 272 271 271 271 271 270 270 270 269 269 268 268 268 269 269 269 270 270 271 271 271 272 272 273 274 275 275 275 275 274 274 273
296 294 294 294 293 292 292 292 289 286 286 288 287 285 285 285 283 282 281 279 278 277 277 276 275 275 274 274 273 272 271 270 270 270 270 270 270 270 269 268 268 269 269 269 270 270 270 270 270 271 271 271 272 273 274 274 274 274 274 274 273 273
293 291 291 293 293 292 291 291 290 288 289 289 287 285 285 284 281 280 279 278 277 276 275 275 274 273 273 272 272 272 271 270 270 270 270 269 269 269 269 269 269 269 269 270 270 270 270 270 270 270 271 271 272 273 273 274 274 273 273 273 273 272
295 295 296 295 292 292 291 290 290 290 290 288 286 285 284 283 280 279 277 276 276 275 274 273 272 271 271 271 271 271 270 270 270 270 270 269 269 269 269 269 269 270 270 270 270 270 270 270 269 270 271 271 272 272 273 273 273 272 272 272 271 271
296 298 297 294 292 292 292 290 290 290 289 287 286 285 283 281 279 278 276 275 274 273 273 272 272 271 270 270 270 270 269 269 270 270 270 270 270 270 270 269 269 270 271 271 270 270 270 270 270 270 271 271 272 272 272 272 272 272 272 271 271 271
295 295 294 293 293 292 291 291 291 290 287 286 285 284 281 279 278 277 276 274 273 272 272 271 271 270 270 270 270 269 269 269 269 270 271 271 271 272 272 271 271 271 271 271 270 270 270 269 270 271 272 272 272 273 273 273 272 272 271 271 271 271
293 292 292 292 293 292 291 290 290 289 287 285 284 283 281 279 277 276 275 273 272 271 271 271 270 270 270 270 269 269 269 269 270 270 271 272 272 272 273 273 272 272 272 271 271 271 271 271 271 272 273 273 273 273 273 273 272 272 271 271 270 269
292 291 291 291 291 291 290 290 289 288 287 285 283 282 281 279 276 275 274 273 272 271 271 270 270 270 270 269 269 269 269 270 270 271 271 271 272 272 273 272 272 272 272 272 271 271 271 272 273 273 273 274 273 273 273 272 272 272 271 270 268 267
290 290 291 291 290 290 289 289 289 288 286 285 283 282 280 279 277 275 274 273 272 271 270 270 270 269 269 269 269 269 270 270 271 271 272 272 273 273 273 273 273 272 272 272 272 271 272 273 273 274 274 273 273 273 272 272 271 271 270 268 267 267
285 285 286 288 289 289 288 287 288 287 286 285 283 281 280 278 277 276 274 273 272 271 270 270 269 269 269 269 269 269 270 271 271 272 273 274 274 274 274 274 273 273 272 272 272 272 272 273 274 273 273 273 272 272 271 271 270 269 268 267 267 267
280 280 281 282 284 286 287 286 287 287 286 284 283 281 279 278 278 276 275 273 272 271 270 270 269 269 269 269 269 270 271 271 272 272 273 274 275 275 275 274 274 273 273 272 272 272 273 273 273 273 272 272 271 270 270 269 269 268 267 266 267 267
277 278 279 280 281 283 285 286 286 286 285 283 282 280 279 278 277 277 275 274 272 271 270 270 269 269 269 269 270 270 271 272 272 273 274 274 274 274 274 274 274 274 273 273 273 273 273 273 273 272 272 271 270 269 268 268 267 267 266 266 266 266
275 276 278 279 280 281 283 284 285 285 284 283 281 279 278 277 277 276 275 273 272 271 270 270 270 270 270 270 270 271 271 272 272 273 273 274 274 273 273 273 274 274 274 273 273 273 273 273 272 272 271 269 268 268 267 267 267 266 266 266 265 264

ECMWFFLT1_925_thetae_006.txt.gz
Theta_e
303 297 295 296 296 296 296 296 296 296 296 296 296 296 296 296 295 294 294 294 294 294 294 294 294 293 293 292 292 292 291 291 291 290 290 290 289 289 289 288 288 287 287 286 286 286 286 286 286 286 285 285 284 284 283 283 284 284 284 284 284 283
303 296 295 296 296 296 296 296 296 296 296 296 296 296 295 295 295 294 294 294 294 294 294 294 293 293 293 292 292 291 291 291 290 290 290 289 289 289 288 288 288 287 287 286 286 285 285 285 285 285 285 284 284 283 283 283 284 284 284 283 283 283
302 296 295 296 296 296 296 295 296 296 295 296 295 295 295 295 295 295 294 294 294 293 293 293 293 293 292 292 291 291 291 291 290 290 290 289 289 289 288 288 288 287 287 286 285 285 285 285 285 284 284 283 283 283 283 283 283 283 283 283 283 282
304 297 295 296 295 295 295 295 295 295 295 296 295 295 295 294 295 294 294 294 294 293 293 293 293 292 292 291 291 291 291 290 290 290 289 289 289 288 288 288 288 287 287 286 285 285 285 285 284 284 283 283 283 283 282 283 283 283 283 283 282 282
301 297 296 295 294 295 294 294 295 295 295 295 295 295 295 295 295 294 294 294 293 293 293 292 292 292 291 291 291 291 290 290 290 289 289 289 288 288 288 288 288 287 286 286 285 285 284 284 283 283 283 283 283 283 283 282 283 283 283 283 282 282
301 301 300 297 295 294 294 294 294 294 295 295 294 295 295 295 295 294 293 293 293 293 292 292 292 291 291 291 291 290 290 290 290 289 289 288 288 288 287 287 287 286 286 286 285 285 284 283 283 282 282 282 282 283 283 282 282 282 283 283 282 282
308 305 303 299 295 296 295 294 294 294 294 295 294 295 295 295 294 294 293 293 292 292 292 292 291 291 291 291 290 290 290 289 289 289 289 288 287 287 287 286 286 286 285 285 285 284 284 283 282 282 282 282 282 282 282 282 282 282 283 283 282 282
314 313 309 301 296 297 297 295 295 294 294 295 295 295 295 294 294 293 293 292 292 292 291 291 291 291 291 290 290 290 289 289 289 288 288 287 287 286 286 286 285 285 285 285 285 284 284 283 282 282 282 282 281 282 282 282 282 282 282 282 282 281
318 320 316 304 298 298 298 297 296 295 294 294 295 295 295 294 294 293 293 292 292 291 291 291 291 291 290 290 290 289 289 288 288 288 287 287 286 286 286 285 285 285 285 285 284 284 283 283 282 281 282 282 281 281 281 281 282 282 282 282 281 280
315 316 314 306 300 298 298 297 296 295 295 294 295 294 294 294 294 293 293 292 291 291 291 291 291 291 290 290 289 289 288 288 287 287 287 286 286 286 285 285 285 285 284 284 284 284 283 282 281 281 281 281 281 281 281 281 282 281 281 281 280 279
311 310 310 308 303 299 298 297 297 296 295 295 295 294 294 294 294 293 292 292 291 291 291 291 290 290 289 289 288 288 288 287 287 286 286 286 285 285 285 285 285 284 284 283 283 283 282 281 281 282 281 281 281 281 281 281 281 281 281 280 279 278
307 307 308 308 307 303 299 297 297 296 296 296 295 294 294 294 293 293 292 292 292 292 291 291 290 289 289 288 288 288 287 286 286 286 285 285 285 284 284 284 284 284 283 283 282 281 281 281 281 281 281 281 281 281 281 281 281 280 280 279 278 276
307 306 306 307 308 304 299 298 299 298 296 296 295 295 294 294 293 293 292 292 292 292 291 290 290 289 288 288 288 287 286 286 285 285 285 284 284 284 283 283 283 283 283 282 281 281 281 281 281 281 280 280 281 281 281 281 280 279 279 278 277 276
305 306 306 306 305 304 302 302 301 298 297 296 296 295 294 293 293 292 292 292 292 291 290 290 289 288 288 287 287 286 286 285 285 284 284 283 283 283 282 282 282 282 281 281 281 281 281 281 281 280 280 280 280 281 281 281 280 279 278 277 276 275
303 304 305 305 304 304 305 304 302 299 298 297 297 296 294 293 293 292 292 292 291 291 290 289 289 288 287 287 286 285 285 284 284 284 283 283 282 282 282 281 281 281 280 280 280 280 280 281 280 279 279 280 280 280 280 280 279 278 277 276 276 275
300 300 301 302 303 304 305 305 302 301 300 298 296 295 293 293 292 292 291 291 290 290 289 289 288 287 286 286 285 285 284 284 283 283 282 282 282 281 281 281 280 280 280 280 280 279 279 280 279 279 280 280 279 279 279 278 278 277 276 276 275 275
299 298 298 298 300 301 302 302 301 300 299 298 296 294 293 293 292 291 291 290 290 289 289 288 287 286 286 285 285 284 283 283 283 282 282 281 281 281 281 280 280 280 279 279 279 279 279 279 279 279 280 280 279 278 277 277 277 276 276 275 275 274
297 297 296 296 297 297 298 299 299 299 298 296 295 294 293 292 291 291 290 290 289 289 288 287 287 286 285 285 284 283 283 282 282 282 281 281 280 280 280 279 279 279 278 278 278 278 278 278 279 279 280 281 280 279 277 277 276 276 275 275 275 274
297 296 296 296 295 294 293 294 296 297 296 294 293 292 291 291 290 290 290 289 289 288 288 287 286 285 285 284 283 283 282 282 281 281 280 280 279 279 279 278 278 278 278 277 277 277 277 278 279 280 280 280 281 280 278 277 277 276 275 275 275 275
297 296 296 296 295 294 293 292 293 294 294 292 291 290 290 289 289 289 289 289 288 288 287 287 286 285 284 283 283 282 282 281 281 280 280 280 279 278 278 278 277 277 277 277 277 277 277 278 279 280 280 280 280 280 278 277 277 276 275 275 275 274
297 297 297 296 296 295 294 293 293 292 291 290 289 289 288 288 289 289 289 289 288 288 287 286 286 285 284 283 282 282 281 281 280 279 279 279 278 278 277 277 276 276 276 276 276 276 276 277 278 280 280 280 280 279 278 277 276 276 275 275 274 274
296 296 296 295 296 296 295 293 293 292 290 289 288 287 288 288 288 289 288 288 288 287 286 286 285 284 284 283 282 281 281 280 279 279 278 278 278 277 276 276 276 275 275 275 275 275 275 277 278 279 279 279 280 279 277 276 276 275 275 274 274 273
295 295 295 296 296 296 296 294 292 292 291 289 288 289 290 289 288 288 288 287 287 286 286 285 285 284 283 282 281 281 280 279 279 278 277 277 277 276 275 275 275 274 274 274 274 274 275 276 277 278 279 279 279 279 277 276 275 275 274 274 273 273
294 294 294 295 295 295 295 293 291 292 291 288 289 292 292 290 288 288 287 287 286 286 285 284 284 283 282 281 281 280 279 278 278 277 277 276 275 275 274 274 273 273 273 273 273 273 274 275 276 277 278 278 279 279 277 276 275 274 274 273 273 273
293 293 294 294 294 294 294 291 290 291 289 288 291 293 290 288 288 287 287 286 285 285 284 283 283 282 281 281 280 279 278 277 276 276 276 275 274 274 273 272 272 272 272 272 272 272 273 274 274 275 277 278 278 279 278 276 274 274 274 273 273 274
292 292 292 293 292 293 294 292 289 289 289 290 293 292 289 288 288 286 286 285 284 284 283 282 282 281 280 279 279 278 277 276 275 275 274 274 274 273 272 272 271 271 271 271 271 271 272 272 273 274 275 277 278 278 278 276 275 275 274 274 274 275
290 291 292 292 292 293 294 292 290 287 289 292 293 291 290 289 287 286 285 284 283 282 282 281 280 280 279 279 278 277 276 275 274 274 273 273 273 272 272 271 271 271 271 271 270 270 271 271 272 272 274 276 277 278 278 277 276 276 276 275 275 274
288 289 289 290 290 291 292 293 291 288 290 293 292 290 290 289 287 286 285 283 282 281 280 279 279 278 278 278 277 277 276 274 274 273 273 272 272 272 272 272 271 271 271 271 271 271 270 271 271 272 273 275 276 277 277 277 277 277 277 276 275 274
284 285 285 285 286 288 290 291 291 290 292 293 292 290 289 288 287 285 284 283 281 280 279 278 278 277 276 276 276 276 275 274 274 273 273 272 272 272 272 272 272 272 271 271 271 271 270 270 271 272 273 274 275 276 276 277 277 276 276 275 274 274
281 282 282 282 282 283 285 288 290 291 292 292 291 289 287 287 286 285 283 282 281 279 278 278 277 276 275 275 275 275 274 274 274 274 273 273 273 273 273 272 272 272 272 272 271 271 271 270 271 272 272 273 274 275 276 276 275 275 274 274 273 272
279 279 279 279 279 280 283 286 288 289 290 291 290 288 285 285 285 283 282 281 280 278 277 277 276 276 275 274 274 274 274 274 274 274 274 274 274 274 274 273 273 273 273 272 272 272 271 270 271 271 272 273 273 274 274 274 274 273 273 272 272 271
277 277 277 277 277 279 281 282 282 283 284 286 287 286 285 284 283 281 281 280 279 277 277 276 275 275 275 274 274 274 273 273 273 273 274 273 273 274 274 274 273 273 273 273 273 273 273 272 272 272 272 273 273 274 274 274 273 272 272 272 271 271
274 274 275 275 276 278 278 278 277 278 279 281 284 285 284 283 282 280 280 279 278 277 276 275 275 274 274 274 273 273 273 272 272 273 273 273 273 273 274 274 274 273 273 273 273 273 273 273 273 272 273 273 274 274 274 274 273 273 272 272 272 271
272 273 274 274 275 275 274 274 275 275 276 278 281 283 283 283 281 281 280 279 278 277 276 275 275 274 273 273 273 272 272 272 272 272 273 273 273 273 274 275 274 274 274 273 273 272 272 273 273 273 274 274 275 275 275 274 274 274 272 272 271 270
271 271 271 271 271 272 272 272 273 274 275 277 279 281 282 282 281 281 281 280 278 276 275 275 274 273 273 273 272 272 271 271 272 272 273 273 274 274 275 275 275 275 275 274 273 273 273 274 274 275 275 275 276 276 275 275 274 273 272 271 270 269
269 268 268 269 269 270 271 271 272 273 274 276 278 279 281 281 281 281 281 281 279 276 275 274 274 273 273 272 272 272 271 271 272 272 273 273 274 275 275 275 275 276 275 274 274 274 274 275 276 276 276 276 276 276 275 274 273 272 270 270 269 268
266 266 266 267 268 268 269 270 271 272 274 275 277 279 280 281 281 281 281 281 279 277 275 274 273 273 272 272 272 271 271 271 272 272 273 273 274 275 276 276 276 276 275 275 275 275 276 276 277 277 277 276 276 275 274 272 270 269 268 268 268 267
265 265 265 266 267 268 269 270 271 272 274 275 277 279 280 281 281 281 281 280 279 277 275 274 273 273 272 272 271 271 271 272 272 272 273 274 274 275 275 276 276 276 276 275 276 277 277 277 277 276 276 275 275 274 273 270 268 267 267 267 267 266

ECMWFFLT1_925_thetae_009.txt.gz
Theta_e
307 297 295 297 296 296 296 296 296 296 296 296 297 297 296 296 295 295 295 295 295 295 295 295 295 295 295 295 294 294 293 293 293 293 292 292 292 291 291 291 290 290 290 289 288 287 287 286 286 286 286 285 285 285 285 285 285 285 284 283 283 283
305 295 295 297 297 297 297 296 296 296 296 296 296 296 296 296 296 295 295 295 295 295 295 295 295 295 294 294 294 293 293 293 293 292 292 292 291 291 291 290 290 290 289 289 288 287 287 286 286 286 285 285 285 285 285 284 284 284 284 283 283 283
300 294 297 297 297 297 297 297 296 296 296 296 296 296 296 296 296 295 295 295 295 295 295 295 295 294 294 293 293 293 293 293 292 292 292 291 291 291 290 290 290 290 289 289 288 287 287 286 286 285 285 285 285 284 284 284 284 283 283 283 283 283
306 297 297 297 297 297 296 296 296 295 296 296 295 296 295 296 296 296 296 295 294 294 295 295 295 294 294 293 293 293 292 292 292 292 291 291 291 291 290 290 289 289 289 288 288 287 286 286 286 285 285 285 284 284 284 284 283 283 283 282 283 283
306 296 297 297 296 296 296 296 296 295 296 295 295 295 295 296 296 296 295 294 294 294 294 294 294 293 293 293 293 292 292 292 292 291 291 290 290 290 290 290 289 289 289 288 287 287 286 286 286 285 285 285 284 284 284 284 283 283 283 283 283 283
307 305 307 300 295 297 297 296 296 295 295 295 294 295 296 296 296 295 295 294 294 294 293 293 293 293 293 292 292 292 292 292 291 291 291 290 290 290 289 289 289 289 288 288 287 287 286 286 285 285 284 284 284 284 284 284 283 283 283 283 283 283
311 313 311 300 296 299 299 298 297 295 295 295 295 296 296 296 295 295 294 294 293 293 293 293 293 292 292 292 292 292 292 291 291 290 290 290 289 289 289 289 288 288 288 288 287 287 286 286 285 284 284 284 284 284 284 283 283 283 283 283 283 283
305 306 304 299 298 300 299 299 298 296 296 295 295 296 296 295 295 295 294 294 293 293 293 292 292 292 292 292 292 292 291 291 290 290 289 289 289 289 288 288 288 288 288 288 287 287 286 286 285 284 284 284 284 283 283 283 283 283 283 282 282 283
301 301 300 299 299 299 299 299 298 297 296 295 295 296 296 295 295 294 294 294 293 293 292 292 292 292 292 292 292 291 291 290 290 289 289 289 288 288 288 287 287 287 287 287 287 286 286 285 284 284 284 283 283 283 282 282 282 282 282 282 282 282
300 299 299 298 298 299 299 299 299 299 298 297 297 296 296 296 295 294 294 293 293 292 292 292 292 292 292 292 291 291 290 290 289 289 289 288 288 288 287 287 287 286 286 286 286 286 285 285 284 283 283 283 283 282 282 282 282 282 281 281 281 282
299 299 298 297 297 298 298 298 299 299 299 300 299 298 298 297 295 295 294 293 293 293 292 292 292 292 291 291 290 290 290 290 289 289 288 288 288 287 287 287 287 286 286 285 285 285 284 284 284 283 283 283 282 281 281 281 281 281 281 281 281 281
298 298 298 297 297 297 297 297 297 298 298 299 300 300 299 297 296 295 294 293 293 293 292 292 292 291 291 290 290 290 290 289 289 288 288 288 287 287 287 286 286 286 285 285 284 284 284 283 283 283 283 283 282 282 281 281 281 281 281 281 280 280
297 297 297 297 296 296 296 296 296 296 296 297 298 299 299 298 296 295 294 293 293 293 292 292 292 291 290 290 290 290 289 289 288 288 287 287 286 286 286 286 285 285 285 285 284 284 283 283 283 283 283 282 282 282 281 281 281 281 280 280 280 280
296 296 296 296 295 295 295 295 295 295 295 295 295 296 297 297 296 295 294 294 294 293 292 292 291 291 290 290 290 289 289 288 287 287 286 286 286 285 285 285 285 285 284 284 284 283 283 283 282 282 282 282 282 282 281 281 281 280 280 279 280 279
295 295 295 295 295 295 294 294 294 293 293 293 293 294 295 296 296 295 294 294 293 293 292 292 291 290 290 290 289 289 288 287 287 286 286 285 285 285 284 284 284 284 284 283 283 283 282 282 282 282 282 282 281 281 281 281 280 280 280 279 279 279
294 294 294 294 294 294 294 294 293 292 291 292 293 293 293 294 295 294 294 293 293 292 292 291 291 290 290 289 288 288 287 287 286 286 285 285 284 284 284 284 283 283 283 283 282 282 282 281 281 281 281 281 281 281 280 280 280 279 279 279 279 278
293 293 294 294 294 293 293 293 293 291 291 291 292 292 292 292 293 293 293 293 292 292 292 291 290 290 289 288 288 287 287 286 286 285 285 284 284 284 283 283 283 283 282 282 282 281 281 281 281 281 281 282 282 281 280 279 279 279 278 278 278 277
293 293 293 293 293 292 292 293 292 291 291 291 291 291 291 291 291 291 291 291 291 291 291 290 290 289 288 288 287 286 286 285 285 285 284 284 283 283 283 282 282 282 282 281 281 281 280 280 280 281 282 282 282 281 279 278 278 278 277 277 276 276
292 292 292 292 291 292 292 292 292 291 291 291 291 291 290 290 290 291 291 290 291 290 290 290 289 289 288 287 286 286 285 285 285 284 284 283 283 282 282 282 282 282 281 281 280 280 280 279 280 281 282 283 283 281 279 277 277 276 276 276 276 276
291 290 290 290 290 290 291 291 291 291 291 291 291 290 290 289 289 290 290 290 290 290 290 289 289 288 288 287 286 286 285 284 284 284 283 283 282 282 282 282 281 281 281 280 280 280 280 279 280 281 283 283 283 281 279 277 276 275 275 275 275 275
289 289 289 289 289 289 289 290 291 291 291 291 291 290 290 290 289 289 289 289 289 289 289 289 289 288 287 286 286 285 285 284 284 283 283 283 282 282 281 281 281 280 280 280 280 280 279 279 279 281 283 283 283 281 279 277 276 275 275 275 275 275
287 287 287 287 287 288 288 289 290 290 290 290 290 290 291 290 289 288 288 289 288 288 288 288 288 288 287 286 286 285 284 284 283 283 282 282 282 281 281 280 280 279 279 279 279 279 279 278 279 280 282 284 283 281 279 277 276 275 275 275 275 275
286 285 285 285 285 286 287 287 288 288 288 289 289 290 290 290 289 289 288 288 288 288 288 288 287 287 287 286 285 285 284 283 283 282 281 281 281 280 280 279 279 278 278 278 278 278 278 278 278 280 282 284 283 281 279 278 276 276 276 275 275 275
284 284 283 283 283 283 284 284 284 285 286 287 288 289 290 290 290 289 288 288 287 287 287 287 287 286 286 285 285 284 283 283 282 281 281 280 280 279 278 278 277 277 277 276 276 276 277 277 277 279 281 283 284 282 280 279 277 276 276 275 275 275
282 282 281 281 281 281 281 282 282 283 284 285 286 287 288 288 289 289 289 288 287 286 286 286 286 285 285 285 284 283 282 282 281 280 280 279 279 278 277 276 276 276 275 275 275 275 275 276 276 278 281 283 284 283 281 280 279 277 276 275 275 275
281 280 280 279 279 279 280 280 281 281 282 282 282 283 285 287 288 289 288 288 287 287 286 285 284 284 284 284 283 282 282 280 280 279 279 278 278 277 276 275 275 275 274 274 274 274 274 275 275 277 280 283 283 283 281 280 279 277 276 275 275 275
279 279 278 278 278 278 278 279 279 279 279 279 279 281 284 287 287 287 287 287 287 287 286 285 284 283 283 283 282 282 281 279 278 278 277 277 277 276 275 275 274 274 274 274 273 273 273 274 275 276 279 282 283 283 282 280 279 278 276 275 275 274
277 277 277 277 277 277 277 277 277 277 277 277 277 280 283 283 283 283 284 285 286 286 285 284 283 282 282 281 281 281 280 279 278 277 276 276 276 276 275 275 274 274 274 274 273 272 272 273 274 275 278 280 282 282 282 280 279 278 277 275 275 275
276 276 276 275 275 275 276 275 275 275 275 275 277 279 280 278 278 280 281 283 284 285 285 283 282 282 281 280 280 280 279 278 277 277 276 276 276 276 275 275 274 274 274 274 273 272 272 272 273 274 276 279 280 281 281 280 279 278 277 275 274 275
274 274 274 274 274 274 274 273 273 273 274 275 276 277 276 275 276 277 278 281 282 283 284 283 282 281 280 279 279 279 278 278 277 277 276 276 276 276 276 275 275 274 275 274 273 272 272 272 273 273 275 278 279 280 281 280 278 278 277 275 274 275
273 273 273 273 273 272 272 272 272 272 273 274 274 274 273 273 274 275 276 279 281 282 283 282 281 281 280 279 278 278 278 278 277 277 277 276 276 276 276 276 275 275 275 275 274 273 272 272 273 273 274 277 278 279 280 279 278 278 277 275 275 275
272 271 271 271 270 270 270 271 271 271 271 271 271 271 271 272 273 274 276 277 279 281 282 281 280 280 279 278 278 277 277 277 277 277 277 276 276 276 276 276 276 275 275 275 275 274 273 273 273 273 274 276 278 279 279 279 278 277 277 275 275 274
270 270 269 269 269 269 269 269 269 269 268 268 268 269 270 271 272 274 275 277 278 280 281 281 280 279 278 278 277 277 276 276 276 276 276 276 276 276 276 276 276 276 276 275 275 274 274 273 274 274 275 276 278 279 279 279 278 277 276 275 274 274
268 268 268 268 268 267 267 267 266 266 266 267 267 268 269 270 272 273 275 276 278 279 280 281 280 279 278 277 277 276 276 275 275 275 276 276 276 276 276 277 277 276 276 276 275 275 274 274 274 275 276 277 278 278 279 278 277 277 276 275 274 273
267 267 267 266 266 266 265 265 265 265 265 266 266 267 268 269 270 272 274 275 277 278 280 280 280 279 278 277 276 276 275 275 275 275 275 276 277 276 276 277 277 277 277 276 276 275 275 275 275 276 277 277 278 278 278 278 277 277 276 275 273 271
266 265 265 265 264 264 264 264 264 264 264 265 265 266 267 269 270 272 273 275 277 278 279 280 280 279 278 277 277 276 275 275 275 275 275 275 276 276 276 277 277 278 277 277 277 276 275 275 276 277 277 278 278 278 278 277 277 277 276 274 273 271
264 264 264 263 263 263 263 263 263 263 264 264 265 267 268 269 270 270 271 273 274 276 278 280 280 279 278 277 276 276 275 275 275 275 275 275 275 275 276 276 277 277 278 277 277 276 276 276 277 277 278 278 278 278 278 277 277 276 274 273 272 271
263 263 262 262 262 262 262 263 263 263 264 266 267 268 268 267 268 268 270 272 273 275 277 279 280 279 278 277 276 276 275 275 275 274 274 274 275 275 275 276 276 277 278 278 277 277 276 277 277 278 278 278 278 278 278 277 275 273 271 270 270 270

ECMWFFLT1_925_thetae_012.txt.gz
Theta_e
298 295 295 297 297 296 296 297 296 297 297 297 297 297 297 296 296 296 296 296 296 296 296 296 296 296 296 296 295 295 294 294 294 294 294 294 294 294 293 293 292 292 291 291 290 290 289 289 288 288 288 287 287 287 286 286 286 286 286 286 285 285
297 295 296 296 297 297 296 296 296 296 296 296 297 297 296 296 296 295 295 296 296 295 295 295 295 295 295 295 295 295 294 294 294 293 293 294 294 293 293 293 292 292 292 291 291 290 289 288 288 288 288 287 287 287 286 286 286 286 286 285 285 284
296 296 297 296 297 297 297 297 296 296 296 296 296 295 296 296 295 295 295 295 295 295 295 295 295 295 295 294 294 294 294 294 294 293 293 293 293 293 293 292 292 292 292 291 291 290 289 289 288 287 287 287 286 286 286 286 286 286 285 285 284 284
296 297 297 297 297 296 296 297 296 297 296 296 295 295 295 295 295 295 295 294 294 294 294 294 294 294 294 294 294 294 294 294 294 293 293 293 292 292 292 292 292 292 291 291 291 290 289 289 288 288 287 286 286 286 286 286 286 285 285 284 284 284
296 296 296 296 296 296 296 296 296 296 296 296 296 295 295 295 294 294 294 294 294 294 294 293 294 294 294 294 294 294 294 294 293 293 293 292 292 292 292 292 292 291 291 291 290 290 289 289 288 287 287 286 286 286 285 285 285 285 285 284 284 284
295 296 295 296 295 295 295 295 296 295 296 296 296 295 295 295 295 294 294 294 294 294 294 293 293 293 293 293 293 294 294 294 293 293 292 292 292 291 291 291 291 291 290 290 290 289 289 289 288 287 286 286 286 286 285 285 285 285 285 285 284 284
295 295 295 295 295 295 294 294 295 295 294 295 295 295 295 295 295 295 294 294 293 293 293 293 293 293 293 293 293 294 294 293 293 292 292 291 291 291 291 291 290 290 290 290 289 289 289 288 288 287 286 286 286 285 285 285 285 285 285 285 285 284
294 294 294 294 294 294 294 293 294 294 293 293 293 293 294 294 295 294 294 294 293 293 293 293 293 293 293 293 293 294 293 292 292 292 291 291 291 290 290 290 290 290 289 290 289 289 289 288 287 287 286 286 285 285 285 285 285 285 284 284 284 284
293 293 293 293 293 293 293 293 293 293 293 292 292 292 292 293 293 293 294 294 293 293 293 292 292 293 293 293 293 293 292 292 292 291 291 291 290 290 290 289 289 289 289 289 289 289 288 288 287 286 286 286 285 284 284 284 284 284 284 284 284 284
293 293 293 293 293 293 293 292 292 292 292 291 291 291 291 292 293 293 293 293 293 293 293 293 293 293 293 293 292 292 292 292 292 291 291 290 290 290 290 289 289 289 288 288 288 288 288 287 287 286 286 285 285 284 284 284 284 283 283 283 283 283
292 292 292 292 292 292 292 292 292 291 291 291 290 290 291 291 292 292 293 293 292 292 293 293 293 293 293 293 292 292 291 291 291 291 290 290 290 289 289 289 289 288 288 288 287 287 287 287 287 286 286 285 284 284 283 283 283 283 282 282 282 282
292 291 291 292 292 292 291 291 291 291 291 290 290 290 290 291 291 291 292 292 292 292 292 292 292 292 292 292 292 291 291 291 291 290 290 290 289 289 288 288 288 287 287 287 287 286 286 286 286 286 286 286 285 284 283 282 282 282 282 282 281 281
291 291 291 291 291 291 291 291 290 290 290 290 290 290 290 290 290 290 291 291 292 292 292 292 292 292 292 292 291 291 291 290 290 290 290 289 288 288 288 287 287 287 287 287 286 286 286 286 286 286 285 285 285 284 283 282 282 282 281 281 281 280
291 291 291 291 291 291 290 290 290 290 290 289 289 290 290 290 290 290 290 291 290 291 291 291 290 291 291 291 291 291 290 290 290 289 289 288 288 287 287 287 287 286 286 286 286 286 285 285 285 285 285 285 285 284 284 283 282 281 281 281 280 280
291 291 290 290 290 290 289 289 289 289 289 289 289 289 290 289 289 289 290 290 290 290 290 290 290 289 290 290 290 290 290 289 289 289 288 288 288 287 287 286 286 286 286 285 285 285 285 285 285 284 284 284 284 284 283 282 282 281 281 280 280 280
290 290 289 289 289 288 288 288 288 288 288 288 289 289 289 289 289 289 289 289 289 289 289 289 289 289 289 289 290 289 289 289 289 288 288 288 287 286 286 286 285 285 285 285 285 285 285 284 284 284 284 284 284 284 283 282 281 281 280 280 280 280
289 289 288 288 288 287 287 287 287 286 286 287 288 288 288 288 288 288 289 288 288 288 288 288 289 288 288 289 289 289 288 288 288 288 287 287 286 286 286 285 285 285 285 285 285 284 284 284 284 284 284 284 284 284 283 282 281 280 280 279 279 280
288 287 287 287 286 286 286 286 285 285 285 286 286 286 287 287 288 288 288 288 287 287 287 287 287 288 288 288 288 288 288 288 288 287 287 286 286 286 285 285 285 285 284 284 284 284 284 284 283 283 283 284 284 284 283 281 280 279 279 278 278 278
287 286 286 286 285 285 285 284 283 284 284 284 284 284 285 286 287 287 287 287 287 287 286 286 287 287 288 288 287 287 288 287 287 287 286 286 285 285 285 285 284 284 284 284 284 284 283 283 283 283 283 284 284 284 283 281 279 279 278 278 277 277
286 285 285 284 283 283 283 282 282 282 282 283 283 283 284 285 286 286 286 286 286 286 287 287 286 287 287 287 287 287 287 287 287 286 286 285 285 285 284 284 284 284 284 284 283 283 283 283 282 282 283 284 285 285 283 280 279 278 277 277 276 276
285 284 284 283 282 282 282 281 281 281 281 281 281 282 283 284 284 284 284 284 285 286 287 287 286 286 286 286 287 287 286 286 286 286 286 285 285 284 284 284 283 283 283 283 283 283 283 282 282 282 284 285 285 285 283 280 278 277 276 276 275 275
284 283 283 282 281 281 280 279 280 280 280 280 280 281 282 282 282 281 280 281 284 286 287 286 286 285 285 286 286 286 286 286 286 285 285 285 284 284 283 283 283 283 282 282 282 282 282 282 281 282 284 285 286 285 282 280 278 277 276 275 275 275
282 282 282 281 280 280 279 279 279 278 279 279 279 280 280 280 279 278 278 280 284 285 285 284 284 285 285 285 286 286 286 286 285 285 285 284 284 283 283 282 282 282 282 281 281 281 281 281 281 282 283 285 286 285 282 280 278 277 276 275 275 275
281 281 280 280 279 278 278 278 278 277 277 278 278 279 278 278 277 276 277 280 282 282 281 282 282 283 284 284 285 285 285 285 285 284 284 283 283 282 282 282 281 281 280 280 280 280 280 280 280 281 283 285 286 284 282 280 279 278 277 276 275 275
279 279 279 278 278 277 277 277 276 276 277 277 277 277 276 275 275 275 277 279 280 279 278 279 280 281 283 283 284 284 284 284 284 283 283 283 282 281 281 280 280 280 279 279 279 279 279 279 279 280 281 284 286 284 282 281 280 279 278 277 276 276
278 278 277 277 276 276 276 276 275 275 275 276 275 275 274 273 274 275 276 277 277 276 276 276 277 279 281 282 283 283 283 283 283 282 282 282 281 280 280 279 279 278 278 277 277 277 278 278 278 279 280 283 285 285 282 281 280 279 278 277 277 276
276 276 276 276 275 275 275 275 274 274 274 274 274 273 272 272 273 274 275 275 274 274 274 274 275 276 279 281 282 282 282 283 282 281 281 280 280 279 279 278 278 277 277 277 276 276 277 277 277 278 279 281 284 285 283 281 281 280 279 277 277 276
275 275 274 274 275 274 274 274 273 273 273 273 272 271 271 272 272 272 272 271 271 271 272 273 274 275 277 280 281 281 282 282 282 281 280 279 279 279 279 278 277 277 277 277 276 276 276 276 276 277 278 279 282 284 284 282 281 281 279 277 277 276
274 274 273 274 274 274 273 273 272 272 272 271 270 270 270 270 270 270 269 269 269 270 270 272 273 274 277 279 280 281 281 281 281 280 279 279 278 278 278 278 278 277 277 277 277 276 275 275 275 276 277 278 280 283 284 283 281 281 279 277 276 276
273 273 273 273 273 272 272 272 271 271 270 269 269 269 269 268 268 268 268 268 268 269 270 271 273 274 276 278 280 280 280 280 280 280 279 279 279 279 278 278 278 277 277 277 277 276 274 274 275 275 276 277 279 282 284 283 281 281 279 277 276 276
272 272 272 272 272 271 271 270 270 269 269 268 268 267 267 266 266 266 266 267 267 268 270 271 272 274 276 277 279 280 280 280 280 280 280 280 280 280 280 279 279 278 278 278 277 276 274 274 274 275 276 277 278 281 283 283 282 280 278 277 276 276
271 271 271 270 270 270 269 269 268 268 267 267 266 266 265 265 265 265 265 266 267 268 270 271 273 274 276 277 278 279 279 280 280 280 280 280 280 280 280 280 280 279 279 278 278 277 276 276 276 276 276 277 278 281 282 283 282 280 278 277 277 276
270 270 269 269 269 268 268 267 267 266 266 265 265 264 264 264 264 264 265 265 266 267 269 270 272 273 274 276 277 278 279 279 279 279 280 280 280 279 279 280 280 280 279 278 278 277 277 277 276 276 276 277 278 280 282 282 281 279 278 277 277 276
269 268 268 267 267 266 266 265 265 265 264 264 263 263 263 263 263 263 264 264 265 266 267 269 270 272 274 276 276 277 278 278 278 278 279 279 280 280 279 279 280 280 279 279 278 277 277 276 276 276 277 277 278 280 282 282 281 279 278 278 277 275
267 266 266 265 265 264 264 263 263 263 263 263 262 262 262 262 263 263 263 263 264 265 267 269 270 272 274 276 277 278 278 278 278 278 278 278 279 279 280 280 280 280 280 279 279 278 277 276 276 277 277 278 279 280 281 282 281 280 279 278 276 274
264 264 264 263 263 263 262 262 262 262 262 262 262 262 262 262 262 263 263 264 265 266 268 269 270 271 272 273 274 276 278 278 278 278 278 278 277 278 279 279 280 280 280 280 280 279 278 277 277 277 277 278 279 280 281 282 281 280 279 278 275 273
262 262 262 262 262 261 261 261 261 262 262 262 262 262 262 262 262 263 264 265 266 267 267 268 268 268 269 270 271 274 276 278 278 278 277 277 277 277 278 278 279 279 280 280 280 280 279 278 278 278 278 279 279 280 281 282 281 280 280 277 274 273
261 261 261 261 261 261 261 261 261 261 262 262 262 262 262 262 263 263 264 264 265 265 265 265 266 267 269 270 272 274 276 278 278 277 277 277 277 277 277 278 278 278 279 280 280 280 279 279 278 278 279 279 279 280 281 281 280 280 278 275 273 273

ECMWFFLT1_925_thetae_015.txt.gz
Theta_e
294 294 293 293 293 293 293 293 293 293 292 292 292 292 293 293 293 293 294 294 293 294 294 295 295 295 295 295 295 295 295 295 295 295 295 295 295 295 294 294 294 293 293 292 292 291 291 291 291 290 290 290 289 289 288 288 288 288 288 288 288 288
293 293 293 293 292 292 292 292 292 292 292 292 291 292 292 292 293 293 293 293 293 293 293 294 294 295 295 295 295 294 294 295 295 295 295 295 295 294 294 294 294 294 293 293 292 291 291 291 290 290 289 289 289 289 288 288 287 288 288 288 288 287
292 293 292 292 292 292 292 292 292 292 291 291 291 291 291 291 292 292 293 293 292 292 292 293 293 293 294 294 294 294 294 294 294 294 294 294 294 294 294 294 293 293 293 293 292 292 291 291 290 290 289 289 288 288 287 287 287 287 287 287 287 287
292 292 292 292 292 291 291 291 291 291 291 290 290 290 290 291 291 292 292 292 292 292 292 292 292 292 293 293 293 294 294 294 294 294 294 294 293 294 293 293 293 293 293 293 292 292 291 290 290 290 289 288 288 287 287 286 286 286 286 286 287 287
291 291 291 291 291 291 291 291 291 291 290 290 290 290 290 290 291 291 292 292 292 292 292 292 292 292 292 292 292 293 293 293 294 294 293 293 293 293 293 293 293 292 292 292 292 291 291 290 290 289 289 288 288 287 287 286 286 286 286 286 286 286
290 291 291 291 291 291 291 290 290 290 290 290 289 289 289 290 290 290 291 291 292 292 292 292 292 292 291 291 291 292 292 292 293 293 293 293 292 292 292 292 292 292 292 292 291 291 290 290 290 289 288 288 287 287 287 286 286 286 286 286 286 286
290 290 291 291 290 290 290 290 290 290 290 289 289 289 289 289 289 290 290 290 291 291 291 292 292 291 291 291 291 291 291 291 292 292 292 292 292 292 292 291 291 291 291 291 291 291 290 290 290 289 289 288 287 287 286 286 286 286 286 286 286 286
290 290 290 290 290 290 290 290 289 289 289 289 288 288 289 289 289 289 289 290 290 290 290 291 291 291 291 291 291 291 291 291 291 291 291 291 291 291 291 291 291 290 291 291 291 290 290 290 289 289 289 288 288 287 286 286 286 286 286 286 286 286
290 290 290 290 290 289 290 289 289 289 289 289 288 288 288 289 289 289 289 289 289 289 289 289 290 290 291 291 291 290 290 290 291 290 290 291 291 291 291 290 290 290 290 290 290 290 290 289 289 289 288 288 287 287 286 286 285 285 285 285 285 285
290 290 290 290 289 289 289 288 288 288 288 288 287 287 288 288 288 288 288 288 289 289 289 289 289 289 290 291 291 291 290 290 290 290 290 290 290 290 290 290 290 290 290 289 289 289 289 289 289 288 288 287 287 286 286 286 285 285 284 284 284 284
290 290 290 290 289 289 288 288 287 287 287 287 286 286 287 287 287 287 287 288 288 288 288 288 288 288 288 289 290 291 291 290 290 290 290 290 290 290 290 290 289 289 289 289 288 288 288 288 288 288 288 287 287 286 286 285 285 284 284 284 284 284
289 290 290 289 288 288 288 287 287 286 286 286 285 285 286 286 287 287 287 287 288 288 287 287 287 287 287 288 289 290 291 291 290 290 290 290 289 289 289 289 289 289 288 288 288 288 288 288 288 288 288 287 287 286 286 285 285 284 284 284 283 283
289 289 289 289 288 288 287 287 286 286 286 285 284 285 285 285 286 286 286 287 287 287 287 286 286 286 287 287 288 289 290 291 291 290 289 289 289 289 289 289 288 288 288 288 288 288 287 287 288 287 287 287 287 287 286 285 285 284 284 283 283 282
290 289 288 288 287 287 287 286 285 285 285 284 283 284 284 284 284 285 285 286 286 286 286 286 285 285 286 286 287 287 289 290 290 290 289 289 289 289 288 288 288 288 288 288 287 287 287 287 287 287 287 287 286 286 286 285 285 284 283 283 283 282
289 288 288 288 287 286 287 286 285 285 284 283 282 283 283 283 283 283 284 285 285 285 285 285 284 285 285 286 286 286 287 288 289 289 289 288 288 288 288 288 288 288 287 287 287 287 287 287 287 287 287 286 286 286 286 285 285 284 284 283 283 282
288 288 288 288 286 286 286 285 284 284 283 282 282 282 282 282 282 283 283 284 284 284 283 283 283 284 285 286 285 285 286 286 287 288 289 288 288 287 287 287 287 287 287 287 287 287 287 287 287 287 286 286 286 286 286 285 285 284 284 283 283 282
287 288 287 287 286 285 285 284 283 283 282 281 281 281 281 281 281 282 282 283 283 282 281 281 281 283 285 285 285 285 285 285 286 287 288 288 287 287 287 287 287 287 287 287 286 286 286 286 287 286 286 286 286 286 286 285 285 284 284 283 282 282
287 287 287 287 286 285 284 284 283 282 281 280 280 280 280 280 281 281 282 282 281 280 280 279 280 283 285 285 284 284 284 284 285 286 287 287 287 287 287 286 286 286 286 286 286 286 286 286 286 286 286 286 285 286 286 286 285 284 283 283 282 282
287 286 286 286 285 284 284 283 282 281 280 280 279 279 279 279 280 280 281 281 280 279 278 277 279 282 285 284 283 283 283 283 283 284 285 286 286 286 286 286 286 286 286 286 286 285 285 285 286 285 285 285 286 286 286 286 285 284 283 282 282 281
286 285 285 285 284 283 283 282 281 280 279 279 279 279 279 278 279 279 279 279 278 277 276 276 279 282 283 282 281 281 281 282 283 283 284 285 285 286 286 286 285 285 285 285 285 285 285 285 285 285 285 285 286 286 287 286 285 284 282 282 281 281
285 285 284 283 283 282 282 281 280 279 279 278 278 278 278 278 278 278 278 277 276 275 275 275 278 281 281 280 279 279 279 280 281 282 282 283 284 285 285 285 285 285 285 285 285 285 284 284 284 284 284 285 286 287 287 286 285 283 282 281 280 279
284 283 282 282 281 281 280 280 279 278 278 277 277 277 277 277 277 277 277 276 275 274 274 274 276 278 279 278 277 277 277 279 280 281 282 282 283 284 284 285 284 284 284 284 284 284 284 284 284 284 284 284 286 287 287 286 285 283 281 280 279 278
282 281 281 281 280 280 279 279 278 277 277 277 276 276 276 276 276 276 275 274 273 273 273 273 275 277 276 275 275 275 275 277 278 279 281 281 282 283 283 284 284 283 283 284 283 283 283 283 283 283 283 284 285 287 287 286 284 283 281 279 278 277
281 280 280 280 279 279 278 277 277 276 276 276 276 276 276 275 275 274 273 272 272 272 272 273 274 274 273 273 273 273 274 275 276 278 279 281 281 282 282 283 283 282 282 282 282 283 283 283 283 283 282 283 285 286 287 286 284 283 281 279 278 277
279 279 279 279 278 278 277 276 275 275 275 275 275 275 275 274 273 273 272 271 271 271 271 272 272 271 271 271 271 272 272 273 275 277 279 280 281 281 282 282 282 282 281 281 281 282 282 282 282 282 282 282 284 285 287 286 285 283 281 280 278 277
278 278 278 278 277 277 276 275 275 274 274 274 275 274 273 273 272 271 270 270 270 270 270 270 270 269 269 269 269 270 271 273 275 277 278 280 280 281 281 281 282 281 281 281 280 281 281 281 281 281 281 282 283 284 286 286 285 283 282 280 279 278
277 277 276 276 276 276 275 274 274 273 273 274 274 273 272 271 270 270 269 269 269 269 269 268 268 268 268 268 268 269 271 273 274 276 278 279 280 280 280 281 281 281 280 280 280 280 280 280 280 280 280 281 281 283 285 286 285 283 282 281 279 278
276 275 275 275 275 274 274 273 273 273 273 273 272 272 271 270 269 268 268 268 268 267 267 267 267 267 267 267 268 269 271 272 274 276 277 279 280 280 280 280 281 281 280 280 280 280 279 279 279 279 279 280 281 282 284 286 285 283 282 281 280 279
274 274 273 273 273 273 273 272 272 272 272 271 271 270 269 268 268 267 267 267 266 266 266 266 266 266 266 267 268 269 270 272 273 275 277 278 279 280 280 280 280 280 280 280 280 280 279 278 278 278 278 279 280 281 282 284 285 283 282 281 280 278
273 272 272 272 272 272 271 271 271 271 270 270 269 268 267 266 266 266 266 265 265 265 265 265 265 265 266 266 267 268 269 270 272 274 276 277 279 279 280 280 280 280 280 280 280 280 279 278 277 277 278 278 279 280 281 283 284 283 282 280 279 278
271 271 271 271 271 270 270 269 269 269 268 267 267 266 265 265 265 264 264 264 264 264 264 264 264 264 265 265 266 267 268 269 271 273 275 277 278 279 279 280 280 280 281 281 280 280 280 279 278 278 278 278 278 279 280 282 283 283 282 280 279 278
270 269 269 269 268 268 267 267 267 266 265 265 264 264 264 263 263 263 263 263 263 263 263 263 263 264 264 264 265 266 268 269 270 272 274 276 277 278 279 280 280 280 281 281 281 280 280 280 280 280 279 279 278 279 280 282 283 283 281 280 279 278
267 267 266 266 265 265 265 264 264 263 263 263 262 262 262 262 262 262 262 262 262 262 262 262 263 263 263 264 264 266 267 268 270 271 273 275 276 277 278 279 280 281 281 281 281 281 280 281 280 280 279 279 279 280 280 281 283 283 281 280 279 278
265 264 264 263 263 263 262 262 262 262 261 261 261 261 261 261 261 261 261 261 262 262 262 262 262 263 263 263 264 266 267 269 271 272 273 275 276 277 278 279 280 281 281 282 282 281 281 280 280 280 280 279 280 280 280 281 283 283 282 280 279 278
263 262 262 261 261 261 261 261 261 261 261 261 261 261 261 261 261 261 261 261 261 261 262 262 262 263 263 264 265 266 268 269 270 271 271 272 273 275 277 278 279 280 281 282 282 282 282 280 280 280 280 280 280 280 280 281 282 283 282 281 279 278
261 261 261 261 260 261 260 260 261 261 261 261 261 261 261 261 261 261 261 261 261 262 262 262 263 263 264 264 265 266 267 267 268 268 268 269 270 271 274 276 278 279 280 281 282 282 282 282 280 280 280 280 280 280 281 281 282 283 282 281 279 278
260 260 260 260 260 260 260 260 261 261 261 261 261 261 261 261 261 261 261 261 261 262 262 262 262 263 263 264 264 264 264 265 265 266 267 268 269 271 274 276 277 278 279 280 281 282 282 282 281 280 280 280 280 280 281 281 282 283 282 281 279 278
260 260 260 260 260 260 260 260 261 261 261 261 261 261 261 261 261 261 261 261 261 261 262 262 262 262 262 263 263 263 263 264 265 266 267 269 271 273 275 277 278 278 278 279 281 281 282 282 282 281 280 280 280 281 281 282 282 282 282 281 279 277

ECMWFFLT1_925_thetae_021.txt.gz
Theta_e
294 294 294 294 293 293 293 293 292 292 291 291 291 291 291 291 291 291 291 290 291 291 291 292 292 292 292 292 293 293 293 293 294 294 294 294 295 295 295 295 295 295 295 295 295 295 295 295 295 295 295 295 295 295 295 294 294 294 294 294 293 293
294 294 294 293 293 293 293 292 292 291 291 290 290 290 290 290 290 291 290 290 289 288 288 289 289 290 290 291 291 291 292 292 292 292 293 293 293 294 294 294 294 294 295 295 295 294 294 295 295 295 295 295 294 294 294 294 294 294 294 293 293 293
294 294 293 293 293 293 292 292 292 291 290 290 290 290 290 289 290 290 290 290 289 287 286 286 287 287 288 288 289 289 289 290 290 291 291 292 292 292 293 293 293 294 294 294 294 294 294 294 294 294 294 294 294 294 294 294 293 293 293 293 293 293
294 294 294 293 293 293 292 292 291 291 290 289 289 289 289 289 289 289 289 289 289 288 287 286 286 285 286 286 287 287 288 288 289 289 290 290 291 292 292 292 292 292 293 293 293 294 293 293 293 294 294 293 293 293 293 293 293 293 293 293 293 293
294 294 294 293 293 293 292 291 291 291 290 289 289 288 289 289 289 289 288 288 288 289 288 288 287 286 285 285 285 286 286 287 287 288 288 288 289 290 290 291 291 291 292 292 292 293 293 293 293 293 293 293 293 293 293 293 293 293 292 292 292 292
294 294 294 293 292 292 291 291 290 290 290 289 288 288 288 288 288 288 288 288 288 288 288 288 287 287 286 286 285 285 285 285 286 286 286 287 287 287 288 289 290 291 291 291 291 291 292 292 292 293 292 292 292 292 292 292 292 292 292 292 292 292
293 293 293 293 292 291 291 291 290 290 289 289 288 287 288 288 288 288 288 288 288 288 288 288 287 287 287 286 286 286 285 285 285 285 285 285 286 286 287 288 288 290 290 290 291 291 291 291 292 292 292 292 292 292 292 292 292 292 292 292 292 292
292 292 292 292 291 291 291 290 290 290 289 289 288 287 287 287 287 287 287 287 287 287 288 287 287 287 286 286 285 285 285 285 285 284 284 284 284 285 286 287 287 288 289 289 290 290 290 290 291 291 291 291 291 291 291 291 291 291 291 291 291 291
291 291 291 291 291 290 290 290 290 289 289 289 288 288 287 287 286 286 286 286 286 287 287 287 287 287 286 285 285 284 284 285 284 284 284 284 284 284 285 285 286 286 287 288 288 289 290 290 290 290 290 290 290 290 290 290 290 290 290 290 290 290
291 291 291 290 290 290 290 289 289 289 289 288 288 288 287 286 286 286 286 286 286 286 286 286 286 286 285 284 284 284 283 283 283 283 284 284 284 284 283 284 284 285 285 286 287 288 289 289 289 290 290 290 290 290 290 290 290 290 289 290 290 290
291 291 290 290 290 290 290 289 289 289 288 288 287 287 286 286 285 285 285 285 285 286 285 285 286 286 285 284 283 283 283 282 282 283 284 283 283 283 283 283 284 284 284 285 285 286 287 288 289 289 289 289 289 289 289 289 289 289 289 289 289 289
291 291 291 290 290 290 290 290 289 289 288 288 287 287 286 285 285 285 285 285 285 285 285 285 285 285 284 283 283 282 282 282 282 283 284 284 284 283 283 283 284 284 284 284 284 285 285 286 287 288 288 289 289 289 289 289 289 289 289 289 289 289
291 291 290 290 290 290 290 290 289 289 288 288 287 287 286 285 285 284 284 284 284 284 284 284 284 284 283 283 282 282 282 281 282 283 284 284 284 284 283 283 283 283 284 284 284 284 285 285 286 286 287 288 288 289 289 289 289 289 288 289 288 288
290 290 290 290 290 290 290 289 289 289 288 288 287 287 286 285 284 284 284 284 283 283 283 283 283 283 283 283 282 282 281 281 281 282 283 284 284 283 283 283 283 283 283 284 284 284 285 285 285 285 285 286 287 288 288 288 288 288 288 288 288 288
290 290 290 290 290 290 290 289 289 288 288 288 287 286 285 285 284 284 284 283 283 283 282 282 283 283 282 282 282 282 281 281 281 281 282 282 282 282 282 283 283 283 283 284 284 284 284 284 284 284 284 285 285 287 288 288 288 288 288 288 288 288
291 290 290 290 290 290 290 289 289 288 288 287 286 286 285 284 284 284 283 283 283 282 282 282 282 282 282 282 281 281 280 280 280 280 280 281 281 281 281 282 282 282 283 284 284 284 284 284 284 284 284 284 284 285 287 288 288 288 288 288 288 288
290 290 290 290 289 289 289 289 288 288 287 286 286 285 284 284 284 283 283 283 282 282 282 282 282 282 282 281 280 280 279 279 279 279 279 279 280 280 280 280 280 281 282 282 282 282 283 283 283 283 283 283 283 284 286 287 288 288 288 288 288 288
290 290 290 289 289 288 288 288 287 286 286 285 284 284 283 283 283 283 282 282 282 282 281 281 281 281 281 281 280 279 279 278 278 277 277 278 279 280 279 279 279 279 280 280 281 281 282 282 283 283 283 283 283 284 285 286 287 288 288 288 288 288
290 290 289 289 288 287 287 286 285 285 284 283 283 282 282 282 282 282 282 281 281 281 281 281 280 280 280 280 279 278 278 277 276 276 276 276 278 278 278 278 278 278 278 279 279 280 281 281 282 283 284 283 283 283 285 285 286 287 287 288 288 288
290 289 288 287 287 286 286 285 284 283 283 282 282 281 281 281 281 281 281 280 280 280 280 280 279 279 279 279 278 277 276 276 275 275 275 275 276 277 277 276 276 276 276 277 277 278 279 280 281 282 283 283 283 283 284 285 286 286 287 287 288 288
288 287 286 286 286 285 284 283 283 282 281 281 280 280 280 280 280 279 279 279 279 278 278 278 278 278 278 277 277 276 275 275 274 274 274 274 275 276 275 275 275 275 275 275 276 276 277 278 280 281 282 283 283 283 284 285 285 286 286 287 287 288
286 286 285 285 284 283 282 281 281 280 279 279 278 278 278 278 278 278 277 277 277 277 276 276 276 275 276 276 275 274 274 274 273 273 273 274 274 274 274 273 273 273 273 274 274 274 275 276 277 278 280 282 282 283 283 284 285 286 286 286 287 287
285 284 284 283 282 281 280 279 279 278 277 277 277 277 276 276 276 275 275 275 275 274 274 274 273 273 273 273 273 273 273 273 272 272 272 272 272 272 272 272 272 272 272 272 272 272 273 274 276 277 278 281 282 283 283 284 285 285 285 286 286 287
283 282 282 281 280 279 278 277 276 276 275 275 275 275 274 274 273 273 273 272 272 272 271 270 270 270 270 270 271 271 271 271 271 271 271 271 271 271 271 271 271 271 271 271 271 272 273 274 275 277 278 280 282 283 283 283 284 284 284 285 286 286
281 280 279 279 277 277 276 275 274 274 274 273 273 272 271 271 270 270 269 269 269 268 267 267 267 267 268 268 268 269 269 269 269 269 269 269 270 270 270 270 270 270 270 271 271 272 273 274 276 277 278 279 281 282 283 283 283 283 284 285 285 286
278 277 277 276 275 274 274 273 272 272 272 271 270 269 269 268 267 267 266 266 266 265 265 265 265 265 265 265 266 266 266 267 267 267 268 268 268 269 269 269 269 269 270 270 271 272 273 274 276 277 279 280 281 282 283 283 283 282 283 284 285 285
276 275 274 274 273 273 272 271 270 270 269 268 268 267 266 265 265 264 264 264 264 264 264 264 263 263 264 264 264 265 265 265 266 266 266 267 267 268 268 268 269 269 270 270 271 272 273 275 276 277 279 280 281 282 283 284 283 283 283 284 285 285
273 273 272 272 271 271 270 269 268 267 267 266 266 265 264 264 264 263 263 263 263 263 263 263 263 263 263 263 263 264 264 264 265 265 265 266 266 267 267 268 268 269 269 270 271 272 273 274 276 277 278 279 280 281 282 283 284 283 283 284 284 284
272 271 271 270 269 268 268 267 266 266 265 265 264 264 263 263 263 263 263 263 263 262 262 262 262 263 263 263 263 263 263 263 264 264 264 265 265 266 266 267 268 268 269 270 271 272 272 273 275 276 277 278 279 280 281 282 283 283 283 283 283 284
270 269 269 268 267 266 266 265 265 264 264 264 263 263 263 263 262 262 262 262 262 262 262 262 262 263 263 263 263 263 263 263 263 263 264 264 264 265 265 266 266 267 267 268 269 270 271 272 273 274 275 277 279 280 281 282 282 282 282 282 283 283
268 267 267 266 265 265 264 264 264 263 263 263 263 263 262 262 262 262 262 262 262 262 262 262 262 262 262 263 263 263 263 263 263 263 263 263 264 264 264 265 265 266 266 267 268 268 269 270 271 272 274 276 278 280 281 282 282 282 282 282 282 282
266 265 265 264 264 264 264 263 263 263 263 263 262 262 262 262 262 262 262 262 262 262 262 262 262 262 262 262 262 262 263 263 263 264 264 264 264 265 265 266 266 267 267 267 268 268 269 269 270 272 273 275 276 278 280 281 282 282 282 282 282 282
265 264 264 264 263 263 263 263 263 263 262 262 262 262 262 262 261 261 261 261 261 261 261 261 261 262 262 262 262 262 262 263 263 263 264 264 265 265 266 266 267 267 268 268 269 269 270 270 271 272 273 274 275 276 278 279 280 281 282 282 283 283
263 263 263 263 263 263 262 262 262 262 262 262 262 262 261 261 261 261 261 261 261 261 261 261 261 261 262 262 262 262 262 263 263 263 263 264 264 265 265 266 266 267 268 268 269 270 270 270 271 272 273 274 275 276 277 278 279 280 281 282 283 283
263 263 262 262 262 262 262 262 262 262 262 262 262 261 261 261 261 261 261 260 260 260 260 261 261 261 262 262 262 262 262 263 263 263 263 263 264 264 264 265 266 266 267 267 268 268 269 269 270 271 272 273 274 275 276 277 278 279 280 282 283 283
262 262 262 262 262 262 262 262 262 262 262 262 262 261 261 261 260 260 260 260 260 260 260 261 261 261 262 262 262 262 262 262 263 263 263 263 263 263 264 264 264 265 265 266 266 267 268 269 270 271 272 273 273 274 275 276 277 279 280 281 283 283
261 261 261 262 262 262 262 262 262 262 262 262 261 261 261 261 260 260 260 260 260 260 261 261 261 261 262 262 262 262 262 262 262 263 263 263 263 263 263 263 264 264 265 266 266 267 268 269 270 271 272 273 274 275 275 276 277 278 280 282 283 283
261 261 261 262 262 262 262 262 262 262 262 261 261 261 261 260 260 260 260 260 260 261 261 261 261 262 262 262 262 262 262 262 262 263 263 263 263 263 264 264 264 264 265 266 267 267 268 269 270 271 272 273 274 275 276 277 277 278 280 282 283 283

ECMWFFLT1_925_thetae_024.txt.gz
Theta_e
294 294 293 293 293 292 292 291 290 289 289 288 288 288 288 288 289 289 289 288 287 286 286 286 286 286 286 286 286 286 287 287 287 288 288 289 289 290 291 291 292 292 292 293 293 294 294 294 294 294 294 295 295 295 295 296 296 296 295 295 295 295
294 293 293 293 293 292 292 291 290 290 289 288 288 288 288 288 288 288 288 288 288 288 287 286 286 285 285 285 285 285 285 285 285 285 286 286 287 287 288 289 290 291 291 292 292 292 293 293 294 294 294 294 294 295 295 295 295 295 295 295 295 295
294 293 293 293 293 293 292 292 291 290 289 288 288 288 288 288 288 288 288 288 288 288 287 287 286 286 286 286 285 285 285 285 285 285 285 285 285 285 286 286 287 288 289 290 291 291 291 292 292 293 293 294 294 294 294 294 294 294 294 294 294 294
294 294 294 293 293 293 292 291 291 290 290 289 288 287 288 288 288 288 288 287 287 288 287 287 287 286 286 286 286 285 285 285 285 285 285 285 285 285 285 285 285 285 286 287 288 289 290 291 291 291 292 293 293 293 293 293 294 294 294 294 294 294
294 294 294 293 292 292 291 291 290 290 290 288 288 287 287 287 287 287 287 287 287 287 287 287 287 287 286 286 285 285 285 285 285 285 285 284 285 285 285 285 285 284 285 285 285 286 287 289 290 290 291 291 292 292 293 293 293 293 293 293 293 293
293 293 293 292 292 291 291 291 290 290 289 288 288 287 287 286 286 286 286 286 286 286 286 286 286 286 286 286 285 285 284 284 285 285 285 284 285 284 284 285 285 285 285 284 285 285 285 286 287 289 290 290 291 291 292 292 292 292 292 292 292 292
292 292 292 292 291 291 291 290 290 290 289 289 288 288 287 286 286 285 286 286 285 286 286 286 285 285 285 285 285 285 284 284 284 284 284 284 285 285 284 284 284 284 284 284 285 285 284 284 285 286 287 288 289 290 290 291 291 291 291 291 291 292
291 291 291 291 291 290 290 290 289 289 289 288 288 288 287 286 286 285 285 285 285 285 285 285 285 285 285 285 285 285 284 284 284 283 283 283 284 284 284 284 284 284 284 284 284 284 284 284 284 284 285 286 287 288 289 290 290 290 290 290 290 291
291 290 290 290 290 290 290 289 289 289 289 288 288 287 287 286 286 286 285 285 285 285 285 285 285 284 284 284 285 284 284 284 284 283 283 283 283 283 284 284 284 284 284 284 284 284 284 284 284 284 284 285 285 286 287 288 289 289 290 290 290 290
291 290 290 290 290 290 290 289 289 289 288 288 288 287 287 287 286 286 286 286 286 285 285 285 285 285 285 284 284 284 284 284 283 283 283 283 283 283 283 283 284 284 284 284 284 284 284 284 284 284 284 284 284 285 285 286 288 288 289 289 289 289
291 291 291 290 290 290 290 290 289 289 289 288 288 287 287 287 287 286 286 286 286 286 285 285 285 285 285 285 284 284 284 283 283 283 282 282 282 282 282 282 283 283 283 283 283 283 284 284 284 284 284 284 284 285 285 285 286 287 288 288 289 289
290 290 291 290 290 290 290 290 290 289 289 289 288 288 287 287 287 286 286 285 285 285 285 284 284 284 284 284 283 283 283 283 283 282 282 282 282 281 281 281 282 282 282 282 282 283 283 283 283 284 284 284 284 284 284 285 285 286 286 287 288 288
290 290 291 290 290 290 290 290 290 289 289 289 289 288 288 287 287 286 286 285 284 284 284 284 283 283 283 283 282 282 282 282 282 282 282 282 281 281 281 281 281 281 281 282 282 282 282 283 283 283 284 284 284 284 284 284 285 285 286 287 287 288
290 289 290 290 290 290 290 290 290 289 289 289 288 288 288 287 286 286 285 285 284 284 284 283 283 283 282 282 282 282 282 281 282 281 281 281 281 281 280 280 280 280 280 281 281 281 282 282 282 282 283 284 284 284 285 285 285 285 285 286 287 287
290 290 290 290 290 290 290 290 290 289 289 289 288 288 287 286 286 285 285 284 284 284 283 283 283 282 282 282 281 281 281 281 281 281 281 281 280 280 279 279 279 279 279 280 280 280 281 281 281 282 283 284 284 284 285 285 285 285 285 285 286 286
290 290 290 290 290 290 290 289 289 289 288 288 287 286 286 285 284 284 283 283 283 283 283 282 282 282 281 281 281 281 281 281 280 280 280 280 280 279 278 278 278 278 278 278 279 279 280 280 280 281 282 283 283 284 284 285 285 285 285 285 285 286
291 291 290 290 290 289 289 288 288 287 287 286 285 285 284 284 283 282 282 282 282 282 281 281 281 281 280 280 280 280 280 280 280 280 280 279 279 278 278 277 277 277 277 277 277 278 278 279 280 280 280 282 283 283 284 284 284 285 285 285 285 286
291 290 290 289 288 288 287 287 286 285 285 284 284 283 283 282 281 281 280 280 280 280 280 280 279 279 279 279 279 279 279 278 278 278 278 278 277 277 277 276 276 276 276 276 276 277 277 278 278 279 279 280 281 283 283 283 284 284 285 285 285 285
290 289 288 288 287 286 286 285 284 284 283 283 282 281 281 280 279 279 279 279 278 278 278 278 277 277 277 277 277 277 276 276 276 276 276 276 276 276 275 275 275 275 275 275 275 276 276 276 277 277 278 278 279 281 281 282 283 284 284 284 284 284
288 287 286 286 285 284 284 283 282 281 281 280 279 279 278 277 277 277 277 276 276 276 275 275 275 275 275 275 275 274 274 274 274 274 274 274 274 274 274 274 274 274 274 274 274 275 275 276 276 276 277 277 278 279 279 280 281 282 283 284 283 283
286 286 285 284 283 282 281 281 280 279 278 277 277 276 276 276 275 275 274 274 273 273 273 273 272 272 272 272 272 272 271 271 271 271 271 272 272 272 272 272 273 273 273 273 273 274 274 274 275 275 275 276 276 277 278 278 279 280 281 282 283 283
285 284 283 282 281 280 279 278 277 276 275 275 275 274 274 274 273 273 272 271 271 270 270 270 270 269 269 269 269 268 268 268 268 269 269 269 269 270 270 270 271 271 271 272 272 272 272 273 273 273 273 274 275 275 276 276 277 278 279 281 282 282
283 282 281 280 279 277 277 276 274 274 273 273 273 273 272 272 271 270 270 269 268 268 267 267 267 267 266 266 266 266 266 266 266 266 266 266 267 267 268 268 268 269 269 269 270 270 270 271 271 271 272 273 273 274 275 275 275 276 277 279 280 281
281 280 279 278 276 275 275 274 273 272 272 271 271 271 270 269 269 268 267 267 266 266 265 265 265 265 265 264 264 264 264 264 264 264 265 265 265 265 265 266 266 266 267 267 268 268 269 269 269 270 270 271 272 272 273 274 274 275 276 278 279 280
278 277 276 275 274 274 273 272 271 271 270 270 270 269 268 267 267 266 266 265 265 264 264 264 264 264 264 263 263 263 263 263 263 264 264 264 264 264 264 265 265 266 266 266 267 267 267 267 268 269 269 270 271 271 272 273 274 275 276 278 279 280
276 275 274 273 273 272 271 270 270 269 268 268 268 267 266 266 265 265 264 264 264 263 263 263 263 263 263 263 263 263 263 263 263 263 263 263 263 264 264 264 264 265 265 266 266 266 267 267 267 268 268 269 270 271 272 273 274 275 277 278 279 280
274 273 272 272 271 270 269 269 268 267 267 268 267 266 265 265 264 264 263 263 263 263 263 263 263 263 263 263 263 263 263 263 263 263 263 263 263 263 264 264 264 265 265 265 266 266 266 267 267 267 268 268 269 270 271 272 273 275 277 278 280 281
272 272 271 270 270 269 268 267 267 266 267 266 265 264 264 264 263 263 263 263 263 262 262 262 262 262 262 262 262 262 262 263 263 263 263 263 263 263 263 263 264 264 264 264 265 265 265 266 266 266 267 267 267 268 268 269 271 273 275 277 278 280
271 270 269 269 268 268 267 266 265 265 265 265 264 264 263 263 263 262 262 262 262 262 262 262 262 262 262 262 262 262 262 262 262 262 263 263 263 263 263 263 263 263 264 264 264 264 264 265 265 265 266 266 266 266 267 268 269 271 273 275 276 278
269 269 268 267 267 266 265 265 265 265 264 264 263 263 263 263 262 262 262 262 262 262 262 262 262 262 262 262 262 262 262 262 262 262 262 262 262 263 263 263 263 263 264 264 264 264 264 265 265 265 266 266 266 267 267 268 269 271 273 274 276 277
268 268 267 266 265 265 264 264 264 264 264 263 263 263 263 262 262 262 262 262 262 262 262 262 262 262 261 261 261 261 261 261 262 262 262 263 263 264 264 264 265 265 265 265 265 265 266 266 266 266 267 268 268 269 270 270 271 271 272 274 275 276
267 266 265 265 264 264 263 263 264 264 263 263 263 263 262 262 262 262 262 262 261 261 261 261 261 261 261 261 261 261 261 261 262 263 263 264 264 265 266 266 267 267 267 267 268 268 268 268 268 269 269 270 270 271 271 272 272 273 273 274 275 276
266 265 264 264 263 263 263 263 263 263 263 263 263 263 262 262 262 261 261 261 261 261 261 261 261 261 261 261 261 261 261 261 261 262 263 264 264 265 266 266 267 267 268 268 268 269 269 269 269 269 270 270 270 271 271 272 272 273 273 274 275 276
264 264 263 263 263 262 262 262 263 263 263 263 263 262 262 262 261 261 261 261 261 261 261 261 261 261 261 261 261 261 261 261 261 262 262 263 264 264 265 266 266 267 267 268 268 268 268 268 269 269 269 270 270 271 271 272 272 273 273 274 274 275
263 263 262 262 262 262 262 262 263 263 263 263 262 262 262 262 261 261 261 261 261 261 261 261 261 261 261 261 261 261 261 261 261 262 262 262 263 263 264 265 265 266 267 267 267 268 268 268 268 269 269 270 270 271 271 272 272 273 273 274 275 275
262 262 262 262 262 262 262 262 263 263 263 263 262 262 261 261 261 261 261 261 261 261 261 261 261 261 261 261 261 261 261 262 262 262 262 262 262 263 263 264 264 265 266 266 266 267 267 268 269 269 270 270 271 272 272 273 273 273 274 274 275 275
261 261 261 262 262 262 262 262 263 263 263 262 262 261 261 261 261 261 261 260 260 261 261 261 261 261 261 261 261 261 262 262 262 262 262 262 263 263 263 263 264 264 265 266 266 267 268 268 269 269 270 271 271 272 273 273 274 274 274 274 275 275
261 261 262 262 262 262 262 262 263 263 263 262 261 261 261 261 260 260 260 260 260 260 261 261 261 261 261 261 262 262 262 262 263 263 263 263 263 263 263 263 264 264 265 265 266 267 267 268 269 269 270 271 272 272 273 274 274 275 275 275 275 275

ECMWFFLT1_925_thetae_027.txt.gz
Theta_e
293 293 293 292 291 291 290 289 288 288 288 288 288 288 288 287 287 288 288 288 288 287 287 286 286 286 285 285 285 285 285 285 285 285 285 285 285 285 285 285 285 285 285 285 285 286 286 287 289 291 292 292 292 292 293 293 293 293 294 294 294 295
293 293 293 293 292 292 291 290 289 288 287 287 287 287 287 287 287 287 287 287 287 287 287 287 286 286 286 285 285 285 285 285 285 285 285 285 285 286 285 285 285 285 285 285 285 285 285 285 285 287 289 290 291 292 292 292 292 293 293 293 293 294
294 293 293 293 292 292 291 290 290 289 288 287 287 286 286 286 286 286 286 286 287 287 286 286 286 286 286 285 285 285 285 285 285 285 285 285 285 285 285 285 285 285 285 285 285 285 285 285 285 285 285 286 288 289 291 291 291 291 292 292 292 293
294 293 293 293 292 292 291 290 290 289 288 287 287 286 286 286 286 286 286 286 286 286 286 286 286 285 285 285 285 285 285 285 284 284 284 284 284 284 284 284 285 285 285 285 285 285 285 285 285 285 285 285 285 286 287 289 290 291 291 291 291 292
293 293 293 292 292 291 290 290 289 289 288 288 287 287 286 286 286 285 286 285 285 286 285 285 285 285 285 285 285 285 285 285 284 284 284 284 284 284 284 284 284 284 284 284 285 285 285 285 285 285 285 285 285 284 285 286 287 289 290 290 291 291
293 293 292 291 291 291 290 290 289 289 289 288 287 287 286 286 286 286 286 285 285 285 285 285 285 285 285 285 285 285 284 284 284 284 284 284 284 283 284 283 283 283 284 284 284 284 284 284 285 285 285 285 285 285 284 285 285 286 287 288 289 290
291 292 292 291 290 290 290 290 289 289 288 288 287 287 286 286 286 286 286 286 286 286 285 285 285 285 285 284 284 284 284 284 283 283 283 283 283 283 283 283 283 283 283 283 283 283 284 284 284 284 284 285 285 285 285 285 285 285 285 285 286 288
290 291 291 290 290 290 289 289 289 288 288 288 287 287 287 287 286 286 286 286 286 286 286 286 285 285 285 284 284 284 283 283 283 283 283 282 282 282 282 283 282 282 282 282 282 282 283 283 283 283 283 284 284 284 285 285 285 285 284 284 285 285
289 290 290 290 289 289 289 289 289 288 288 288 288 287 287 287 287 287 287 287 287 287 286 286 285 285 285 284 284 284 283 283 283 282 282 282 282 282 282 282 282 282 282 281 282 282 282 282 282 282 283 283 283 284 284 284 284 284 284 285 285 284
289 289 290 290 289 289 289 289 289 289 289 288 288 288 288 288 287 287 287 287 287 286 286 285 285 284 284 284 284 283 283 283 282 282 282 282 281 281 281 281 281 281 281 281 281 281 281 281 281 281 282 282 283 283 283 283 283 284 284 284 284 284
289 289 290 290 290 290 289 289 289 289 289 289 288 288 288 288 288 287 287 287 286 286 285 285 284 284 284 284 283 283 283 282 282 282 281 281 281 281 281 281 280 280 280 280 280 280 280 280 280 280 280 281 282 282 283 283 283 283 284 284 284 284
288 289 291 290 290 290 290 290 289 289 289 289 289 289 289 288 288 288 287 287 286 286 285 284 284 284 283 283 283 282 282 282 281 281 281 280 280 280 280 280 280 280 279 279 279 279 279 279 279 279 279 280 281 282 282 283 283 284 284 284 284 284
288 289 290 290 290 290 290 290 290 289 290 289 289 289 289 288 288 287 287 286 286 285 284 284 283 283 282 282 282 282 282 281 281 281 280 280 280 280 280 280 279 279 279 279 278 278 278 278 278 278 279 280 281 282 282 283 283 283 284 284 284 284
287 287 290 290 290 290 290 290 290 290 290 289 289 289 288 288 287 286 286 285 285 284 284 283 282 282 281 281 281 281 281 280 280 280 279 279 279 279 279 279 279 278 278 278 278 278 277 277 277 277 278 279 280 281 282 282 283 283 283 284 284 284
287 288 290 290 290 290 290 289 289 289 289 288 288 288 287 286 286 285 285 284 284 283 282 281 281 280 280 280 280 280 279 279 278 278 278 278 278 278 278 278 278 277 277 277 277 277 277 277 276 277 278 278 279 280 281 281 281 282 283 283 283 283
289 289 289 289 289 289 289 288 288 287 287 287 286 286 285 285 284 284 283 283 283 282 280 279 279 279 279 278 278 277 277 276 276 276 276 276 276 276 276 276 276 276 276 276 276 276 276 275 276 276 277 278 278 279 280 280 280 281 281 282 282 282
291 290 289 288 288 287 287 286 286 286 285 285 285 284 283 283 283 282 282 281 280 279 278 278 277 277 276 276 275 275 274 274 274 274 274 274 274 274 274 274 274 274 274 274 274 274 274 274 274 275 276 276 277 278 278 278 279 279 280 280 281 281
289 288 287 287 287 286 285 285 284 284 284 283 283 282 282 281 281 280 279 278 277 277 276 276 275 274 274 273 273 272 272 272 272 272 272 272 271 271 271 271 272 272 272 272 272 272 272 272 273 274 274 275 275 276 277 277 277 278 278 278 279 279
288 287 286 286 285 285 284 283 283 283 282 282 281 280 279 278 278 277 276 275 275 275 274 273 272 271 271 271 270 270 270 270 269 269 269 269 269 269 269 269 269 269 270 270 270 270 270 270 271 272 272 273 274 275 275 276 276 276 277 277 277 277
287 286 285 285 284 283 282 282 281 281 280 279 278 277 276 276 275 274 274 273 273 272 271 270 270 269 269 268 268 268 267 267 267 267 267 266 267 267 267 267 267 267 267 267 267 268 268 268 269 269 270 271 271 272 273 273 274 274 275 275 275 275
285 284 284 283 282 280 280 280 280 279 278 277 276 275 274 273 273 272 272 271 270 269 269 268 268 267 267 266 266 266 266 265 265 265 265 265 265 265 265 265 265 265 265 265 266 266 266 266 266 266 267 268 269 270 271 272 272 273 273 274 274 274
284 283 282 281 279 278 279 278 278 277 275 274 273 273 272 271 271 270 269 268 268 267 267 266 266 266 265 265 265 264 264 264 264 264 264 264 264 264 264 264 264 264 264 264 264 264 264 265 265 265 266 267 268 269 270 270 271 272 272 273 273 273
282 281 279 278 278 277 277 277 276 274 273 272 271 271 270 269 269 268 267 266 266 266 266 266 265 265 264 264 264 264 263 263 263 263 263 263 263 263 263 263 263 263 263 264 264 264 264 264 264 265 266 267 268 268 269 270 270 271 271 271 272 272
280 279 278 277 277 276 275 275 274 272 271 270 270 269 269 268 267 266 266 265 265 265 266 265 264 263 263 263 263 263 263 263 263 263 263 263 263 263 263 263 263 263 263 263 263 263 264 264 264 265 265 266 267 268 269 269 270 270 271 271 272 272
278 277 276 275 275 274 273 272 271 270 269 269 269 268 267 266 266 265 265 265 266 266 265 264 263 263 263 263 263 263 262 262 262 262 262 262 262 262 262 262 263 263 263 263 263 263 263 264 264 264 265 266 267 268 268 269 270 270 270 271 271 272
276 275 274 273 273 272 271 271 270 269 268 268 268 267 266 265 265 264 265 265 266 265 264 263 263 263 262 262 262 262 262 262 262 262 262 262 262 262 262 262 262 262 263 263 263 263 263 264 264 264 265 266 266 267 268 269 269 270 270 270 270 270
275 274 273 272 271 270 270 269 268 268 268 268 267 265 265 264 264 264 265 265 265 263 263 262 262 262 262 262 262 262 262 262 262 262 262 262 262 262 262 262 262 262 262 262 263 263 263 264 264 264 265 265 266 267 267 268 268 269 269 270 270 270
274 273 271 271 270 269 269 268 268 267 267 267 266 265 264 264 264 264 264 264 263 262 262 262 262 262 262 262 262 262 262 262 262 261 261 261 261 261 261 262 262 262 262 262 263 263 264 264 264 265 265 265 266 266 267 267 268 269 269 269 270 270
273 272 270 270 269 268 268 267 267 267 267 266 265 265 264 264 264 264 263 263 262 262 262 262 262 262 262 262 262 262 262 262 261 261 261 261 261 261 261 262 262 262 262 263 263 264 265 265 265 266 266 266 266 266 266 267 267 268 268 268 269 269
272 271 269 269 268 267 267 267 268 267 266 265 265 264 264 263 263 263 262 262 262 262 262 262 262 262 262 262 262 262 261 261 261 261 261 261 261 261 262 262 263 263 264 265 265 266 266 267 267 267 267 268 268 268 268 268 268 268 268 268 268 269
270 269 269 268 267 267 266 267 267 267 266 265 265 264 263 263 263 262 262 262 262 262 262 262 261 261 261 261 261 261 261 261 261 261 262 262 263 263 264 264 265 266 266 267 267 267 268 268 268 268 269 270 270 270 270 271 270 270 270 270 271 271
269 268 267 267 266 266 265 266 267 267 266 265 264 264 263 263 262 262 262 262 261 261 261 261 261 261 261 261 261 261 261 261 261 262 263 263 264 265 266 266 267 267 268 268 268 268 268 269 269 270 270 271 271 271 271 272 272 272 272 272 273 273
268 267 266 266 265 265 264 265 267 266 265 265 264 263 263 262 262 261 261 261 261 261 261 261 261 261 261 261 261 261 261 261 261 262 263 264 264 265 266 266 267 268 268 268 268 268 269 269 269 270 270 271 271 271 272 272 273 273 273 274 274 274
266 266 265 265 264 264 264 265 266 266 265 264 264 263 263 262 261 261 261 261 261 261 261 261 261 261 261 261 261 261 261 261 261 261 262 263 264 264 265 266 266 267 267 268 268 269 269 269 269 270 270 271 271 272 272 273 273 273 274 274 275 274
265 264 264 264 264 263 263 265 266 266 264 264 264 263 262 262 261 261 261 261 261 261 260 260 261 260 261 261 260 261 261 261 261 261 262 262 263 264 264 265 266 266 267 267 268 268 269 269 270 270 270 271 271 272 273 273 273 273 274 274 275 274
264 264 263 263 263 263 263 265 266 265 264 264 263 263 262 262 261 261 261 260 260 260 260 260 260 260 260 260 260 260 261 261 261 261 262 262 263 263 263 264 264 265 266 266 267 268 268 269 270 270 270 271 271 272 273 273 273 273 273 274 274 274
263 263 263 263 263 262 262 264 265 264 263 263 263 262 262 261 261 261 260 260 260 260 260 260 260 260 260 260 260 261 261 261 262 262 262 262 262 263 263 263 264 264 265 266 267 267 268 269 269 270 271 271 272 272 273 273 273 273 273 273 273 273
262 262 263 263 262 261 262 264 265 264 263 263 262 262 261 261 261 260 260 260 260 260 260 260 260 260 260 260 261 261 261 262 262 262 262 262 263 263 263 263 264 264 265 266 266 267 267 268 269 270 270 271 272 272 273 272 272 272 272 273 273 274

ECMWFFLT1_925_thetae_030.txt.gz
Theta_e
292 291 290 289 288 288 287 287 287 287 287 287 287 287 287 287 287 287 287 286 286 286 286 286 286 286 286 286 286 286 286 286 286 286 286 286 286 286 286 286 285 285 285 285 285 285 285 285 285 285 285 285 285 285 285 285 285 286 286 287 289 290
293 292 291 291 290 289 288 287 287 287 287 287 287 287 286 287 287 287 287 287 286 286 286 286 286 286 286 286 286 285 285 285 285 285 285 285 285 285 285 285 285 285 285 285 285 285 285 285 285 285 285 285 285 285 285 285 285 285 285 285 286 286
293 292 292 292 291 290 289 288 287 286 286 286 286 286 286 286 286 286 286 286 286 286 285 285 285 285 285 285 285 285 285 285 284 284 284 284 284 284 284 284 284 284 284 284 284 285 285 285 285 284 284 284 284 284 285 285 285 285 285 285 285 285
292 292 292 292 292 291 290 289 288 287 287 286 286 286 286 286 286 286 286 286 286 285 285 285 285 285 285 285 285 285 285 284 284 284 283 283 283 283 283 283 283 283 283 283 283 283 284 284 284 284 284 284 284 284 284 284 284 284 285 285 285 285
293 293 293 292 292 291 290 289 288 288 287 287 286 286 286 286 286 286 286 286 286 286 286 285 285 285 285 285 284 284 284 284 283 283 283 283 282 282 282 282 282 281 281 281 282 282 282 282 283 283 283 283 283 284 284 284 283 283 284 284 284 284
292 292 293 292 291 291 290 289 289 288 288 287 287 286 286 286 286 286 286 286 286 286 286 286 285 285 285 284 284 284 284 283 283 282 282 282 282 282 281 281 281 281 281 281 281 281 281 281 281 281 282 282 282 282 282 283 283 283 283 283 283 284
291 292 293 292 291 290 290 289 289 288 288 287 287 286 286 286 286 286 286 286 286 286 286 286 285 285 284 284 284 283 283 283 282 282 282 281 281 281 281 280 280 280 280 280 280 280 280 280 280 280 280 280 280 280 281 281 281 281 282 282 282 283
290 292 292 292 291 290 290 289 289 289 288 287 287 287 287 287 287 287 287 287 287 287 286 286 285 285 285 284 284 283 283 282 282 282 281 281 281 281 280 280 280 280 279 279 279 279 279 279 279 279 279 279 279 279 279 280 280 280 280 281 281 281
289 291 292 291 290 290 290 289 289 288 288 287 287 287 287 287 287 287 287 287 287 287 286 286 286 285 285 284 284 283 282 282 281 281 280 280 280 280 280 279 279 279 279 278 279 279 279 279 279 279 279 279 279 279 279 279 279 279 280 280 281 281
288 288 290 290 290 289 289 289 288 288 288 288 288 287 288 288 288 288 287 287 287 287 286 286 285 285 285 284 284 283 282 281 281 280 280 280 279 279 279 278 278 278 278 278 278 278 278 278 278 278 278 278 278 278 278 279 279 279 280 280 281 281
287 287 289 289 289 289 289 289 289 288 288 288 288 288 288 288 288 288 288 287 287 286 286 286 285 285 284 284 283 282 281 280 280 280 279 279 278 278 278 277 277 277 277 277 277 277 277 277 277 277 277 278 278 278 279 279 279 280 280 280 281 281
287 287 288 289 289 289 289 289 289 289 289 289 289 289 288 288 288 288 287 287 287 286 286 285 285 284 284 283 282 281 280 280 279 279 278 278 278 277 277 277 276 276 276 276 277 276 276 277 276 276 277 278 278 279 279 279 279 279 279 280 280 280
286 287 288 288 289 289 289 289 289 289 289 289 289 288 288 288 287 287 287 286 286 285 285 284 284 283 282 281 280 280 279 279 278 277 277 277 277 277 277 276 276 276 275 275 275 275 275 275 275 276 277 277 278 278 278 278 278 278 279 279 279 279
286 287 287 288 289 289 288 289 289 288 288 288 288 287 287 287 287 286 286 285 285 284 284 283 283 281 280 279 279 278 278 277 277 276 276 275 275 275 275 275 274 274 274 274 274 274 274 274 274 275 275 276 276 277 277 277 277 278 278 278 278 278
287 288 289 289 289 288 288 288 288 288 287 287 287 286 286 286 286 285 285 284 283 283 282 281 280 279 278 278 277 277 276 275 275 275 274 274 273 273 273 273 273 272 272 272 272 272 272 272 272 273 273 274 275 275 276 276 276 276 276 276 276 277
289 289 289 289 288 288 288 288 287 287 286 286 286 286 285 285 285 284 283 282 281 280 279 278 278 277 276 276 275 275 275 274 274 273 272 272 272 272 271 271 270 270 270 269 269 269 269 269 270 271 271 272 272 273 274 274 274 274 275 275 275 275
289 289 289 288 288 287 287 287 286 286 286 285 285 285 284 284 283 282 281 280 279 278 277 276 276 275 275 274 274 273 273 272 272 271 271 271 271 270 269 269 268 268 268 267 267 267 267 267 268 269 269 270 271 271 272 272 272 272 272 273 273 274
289 289 289 287 287 287 286 286 285 285 285 285 284 283 283 282 281 279 278 277 276 275 275 274 274 273 273 273 272 272 271 270 270 270 270 269 269 268 267 267 267 266 266 266 266 266 265 265 266 267 268 269 269 270 270 270 270 270 270 270 271 271
289 289 288 286 286 286 285 284 284 284 283 283 282 281 280 279 278 277 276 275 274 273 273 272 272 272 272 271 270 270 269 268 268 268 268 267 267 266 266 265 265 265 265 265 265 264 264 264 265 266 267 268 268 269 269 269 269 269 269 269 270 270
288 287 286 285 284 284 283 283 282 282 282 281 280 279 278 277 276 274 274 273 272 272 272 271 271 271 270 269 268 268 268 267 267 267 266 265 265 265 264 264 264 264 264 264 264 264 264 264 264 265 266 266 267 268 268 268 269 269 269 269 269 270
286 285 285 284 283 282 282 281 281 281 281 280 279 278 277 275 274 273 272 271 271 271 271 271 270 270 269 268 267 267 267 267 267 266 265 264 264 264 263 263 263 263 263 263 263 263 263 263 263 264 265 266 267 268 268 268 269 269 269 269 269 269
285 284 283 283 282 281 281 281 280 280 279 278 277 276 275 274 273 272 271 271 270 271 270 270 269 268 267 266 266 266 266 266 266 265 264 263 263 263 263 263 263 263 263 263 263 263 263 263 263 263 264 265 267 268 268 269 269 269 269 269 269 269
284 283 282 282 281 280 280 279 278 278 277 276 275 274 273 273 272 271 270 270 270 270 270 269 268 267 266 266 266 266 266 265 265 264 263 263 263 262 262 262 262 262 262 262 262 262 263 263 263 263 264 265 266 267 268 269 269 269 269 269 269 269
282 281 281 280 279 279 278 277 277 276 276 275 274 273 272 271 271 270 270 270 270 270 269 268 266 266 265 266 266 265 265 265 264 263 263 262 262 262 262 262 262 262 262 262 262 262 262 263 263 263 264 265 266 267 268 269 269 269 270 270 270 270
281 280 279 278 278 277 277 276 276 275 275 274 273 272 271 270 269 269 269 269 269 269 268 266 265 265 265 266 265 264 264 264 263 262 262 262 262 262 262 262 262 262 262 262 262 262 262 263 263 263 264 265 266 268 268 269 269 270 270 271 271 271
280 279 278 277 276 276 276 275 274 274 273 272 271 271 270 269 268 268 268 268 268 268 267 265 265 265 265 265 265 264 263 263 263 262 262 262 261 261 261 261 262 261 261 262 262 262 262 263 264 264 265 265 267 268 269 269 270 270 271 271 271 271
279 278 276 275 275 274 274 273 273 272 272 271 270 270 269 268 268 267 267 267 267 267 266 265 265 265 265 265 264 263 262 262 262 262 262 261 261 261 261 261 261 261 261 261 262 262 263 264 265 265 266 266 267 268 268 269 270 270 271 271 271 271
278 276 275 274 273 273 272 272 271 271 271 270 270 269 268 267 267 266 266 267 266 265 264 264 265 265 265 264 263 262 262 262 262 261 261 261 261 261 261 261 261 261 261 262 262 263 264 265 266 266 267 267 267 268 268 268 269 270 270 271 271 271
276 275 274 273 272 271 271 271 271 270 270 269 269 268 267 266 266 265 266 266 265 264 264 263 264 264 264 263 262 262 262 262 262 261 261 261 261 261 261 261 262 262 262 263 264 265 266 267 267 268 268 268 268 268 268 269 269 269 270 270 270 270
275 274 273 272 271 270 270 270 270 269 269 268 267 266 266 266 265 264 265 264 264 263 263 263 263 263 262 262 262 262 261 262 262 261 261 261 262 262 262 262 263 263 264 265 266 267 267 268 268 269 269 269 269 270 270 270 271 271 271 270 270 271
274 273 272 271 270 270 269 270 270 269 268 267 266 265 265 265 264 263 263 263 263 263 263 262 262 262 262 261 261 261 261 262 262 261 262 263 263 263 264 265 265 266 267 267 268 268 269 269 269 269 270 270 271 272 272 272 272 273 273 273 273 273
273 272 271 270 269 268 269 269 269 268 267 266 265 265 265 264 263 262 263 263 262 262 262 262 262 262 261 261 261 261 261 262 262 263 263 263 264 265 266 266 267 268 268 269 269 269 269 269 270 270 271 271 272 272 273 273 273 273 274 274 274 275
271 271 270 269 268 268 268 269 269 268 266 266 265 264 264 263 262 262 262 262 262 262 262 262 261 261 261 260 260 260 260 261 262 265 265 264 264 265 266 267 267 268 268 269 269 269 269 269 270 270 271 272 272 272 273 273 273 274 274 275 275 275
271 270 269 268 268 267 267 268 268 267 265 265 265 264 264 263 262 261 262 262 262 262 262 261 261 261 260 260 260 260 260 260 261 263 266 267 265 264 264 265 266 267 268 268 268 268 269 269 269 270 271 271 272 272 272 273 273 274 274 275 275 274
270 269 268 267 267 267 267 268 268 266 265 264 264 264 263 263 262 261 262 262 261 262 262 261 261 260 260 260 260 260 260 260 260 260 263 265 266 265 265 266 266 266 266 267 267 268 268 269 269 270 270 271 271 272 272 272 273 273 273 274 273 273
268 267 266 266 266 265 266 268 268 266 264 264 264 263 263 262 262 262 262 262 261 261 261 261 260 260 260 260 260 260 260 260 260 260 261 262 262 263 265 267 267 266 265 265 266 267 267 268 268 269 269 270 271 271 271 271 271 271 271 271 271 271
266 266 266 265 265 265 265 267 267 265 263 263 263 263 262 262 262 262 262 262 262 261 260 260 260 260 259 259 259 260 260 260 261 261 261 261 261 261 262 263 265 265 264 264 265 266 266 267 267 268 269 270 270 270 269 269 268 268 268 269 269 270
265 266 265 265 265 264 265 267 266 264 263 263 262 262 262 262 262 262 263 263 262 261 260 260 259 259 259 259 260 260 260 260 260 260 261 261 261 261 261 261 262 262 263 264 264 264 265 266 266 267 268 268 267 267 267 266 266 266 266 266 267 268

ECMWFFLT1_925_thetae_033.txt.gz
Theta_e
290 289 288 288 287 287 287 287 287 287 287 287 287 287 287 286 286 286 286 286 286 286 286 286 287 286 286 286 286 286 286 285 285 285 285 284 284 284 284 284 284 284 284 284 284 284 283 283 283 283 283 283 283 283 284 284 283 283 284 284 284 283
290 289 288 288 287 287 287 287 287 287 287 287 287 287 287 287 287 286 286 286 286 287 287 287 287 287 287 287 286 286 286 285 285 285 284 284 284 284 284 284 284 283 283 284 283 283 284 283 283 283 282 282 282 282 282 282 282 282 282 283 283 283
291 289 288 288 287 287 287 287 287 287 287 287 286 286 286 286 286 286 286 286 287 287 287 287 287 287 287 286 286 286 286 285 285 284 284 283 283 283 283 283 283 282 283 283 283 283 283 283 283 282 282 282 282 281 281 281 280 281 281 281 282 282
291 291 290 289 288 288 287 287 286 286 286 286 286 286 286 286 286 286 286 287 287 287 287 286 286 286 286 286 286 285 285 285 284 283 283 283 282 282 282 282 282 281 281 281 282 282 282 282 282 281 281 281 281 281 281 280 280 280 280 280 280 281
292 292 291 291 290 289 288 287 287 286 286 286 286 286 286 286 286 286 286 286 286 286 286 286 285 285 285 285 285 285 285 284 283 283 282 282 282 281 281 281 280 280 280 280 280 280 280 280 280 280 280 279 279 279 280 280 279 279 280 280 280 280
291 291 292 291 291 290 290 289 288 287 287 286 286 286 286 286 286 286 286 286 286 286 286 285 285 285 285 285 285 285 284 284 283 282 282 281 281 281 280 280 279 279 279 278 278 278 278 278 278 278 278 278 278 278 278 278 279 278 278 279 279 279
290 291 291 292 292 291 291 290 288 288 287 287 286 286 286 286 286 286 286 286 286 286 286 286 285 285 285 285 285 284 284 283 282 281 281 280 280 280 279 279 278 278 278 277 277 277 277 277 277 277 277 277 277 277 277 277 278 278 278 278 278 279
289 291 291 292 292 292 291 290 289 288 287 287 287 286 286 286 286 286 286 287 286 286 286 286 285 285 285 285 284 284 284 283 282 281 280 280 279 279 279 278 278 277 277 277 277 277 277 277 277 277 277 277 277 277 277 277 277 277 278 278 278 278
289 290 291 292 292 292 291 290 289 288 288 288 287 287 287 287 287 286 287 286 286 286 285 285 285 285 284 284 284 284 283 282 281 280 280 279 279 278 278 278 277 277 277 277 277 276 276 276 276 276 276 276 276 276 276 277 277 278 278 278 278 278
289 289 290 291 291 291 291 290 289 289 288 288 287 287 287 287 287 286 286 286 285 285 285 285 285 285 284 284 284 284 283 282 280 280 279 279 278 278 278 277 277 277 277 276 276 276 275 275 275 275 275 275 275 276 277 277 277 277 277 278 278 278
289 288 289 290 291 291 290 290 290 289 289 288 287 287 287 287 287 286 286 285 285 285 285 285 285 285 285 285 284 284 283 281 280 280 279 279 278 278 278 277 277 277 277 277 276 275 275 274 274 273 274 275 275 276 276 276 276 276 276 276 277 277
288 288 289 290 290 291 290 290 289 289 288 288 288 287 287 287 286 286 285 285 284 285 285 285 285 285 284 284 284 283 282 281 280 280 280 279 279 278 278 278 277 276 276 276 276 275 274 273 273 272 273 274 275 275 275 275 275 275 275 275 275 276
286 287 288 289 290 290 290 289 289 288 288 288 287 287 287 287 286 285 285 285 285 285 285 284 284 284 284 284 283 282 281 280 280 280 279 279 279 279 278 278 277 276 275 275 274 274 273 272 271 271 271 272 273 273 274 274 273 274 274 274 274 274
285 286 287 288 290 290 289 289 288 288 288 287 287 287 287 286 286 285 285 285 285 285 284 284 284 284 283 283 282 280 280 279 279 279 279 278 278 278 277 277 276 275 275 274 273 272 271 270 270 269 270 271 272 272 273 273 272 272 272 272 273 273
285 286 288 289 289 289 289 289 288 288 288 287 287 286 286 286 285 285 285 285 285 284 284 284 283 282 282 281 280 279 279 278 278 278 277 277 276 276 276 275 274 274 273 272 272 271 270 269 269 269 269 270 271 271 272 272 272 272 272 272 272 271
287 288 289 289 289 290 289 289 288 288 287 287 286 286 286 286 285 285 285 284 284 284 283 282 281 280 280 279 278 278 278 277 277 276 276 276 275 275 274 274 273 272 271 270 269 269 269 269 269 268 268 269 270 270 271 271 271 271 271 270 270 270
289 289 289 290 290 289 289 288 288 287 286 286 286 285 285 285 285 284 284 284 283 283 282 281 280 279 279 278 277 277 277 276 276 275 275 274 274 273 273 272 271 270 269 268 268 268 268 268 268 268 267 268 269 270 270 270 270 269 269 269 269 269
290 290 290 289 289 288 288 287 287 286 286 285 285 284 284 284 284 283 283 282 282 281 281 280 279 278 278 277 276 276 275 275 274 274 274 273 273 272 271 271 270 269 268 268 267 266 267 268 267 266 266 267 268 269 269 269 269 268 268 268 268 268
290 290 290 289 288 288 287 287 286 286 285 284 284 284 283 283 283 282 282 281 280 280 279 278 277 277 276 276 275 275 274 274 273 273 272 271 271 270 270 269 268 267 267 267 266 266 266 266 265 265 266 267 268 268 268 268 268 268 268 268 268 268
289 289 289 288 287 287 286 286 285 284 284 283 283 283 283 282 281 281 280 279 278 278 277 276 276 275 275 274 274 273 273 272 272 271 270 269 269 269 268 267 267 266 266 266 266 265 264 264 264 264 265 266 267 268 268 268 268 268 268 268 268 268
288 288 287 287 286 286 285 284 284 283 283 283 282 282 281 280 280 279 278 277 276 276 275 274 274 274 273 273 273 272 272 271 270 270 268 267 267 267 266 266 265 265 265 265 265 264 263 264 264 264 264 265 266 268 268 268 268 268 268 268 268 268
287 287 286 286 286 285 284 283 282 282 282 281 281 280 280 279 278 278 277 276 275 274 273 273 273 273 272 272 272 271 270 270 269 268 267 266 266 265 265 264 264 264 264 265 264 264 263 263 263 264 264 265 267 268 268 268 268 268 268 268 269 269
287 287 286 286 285 284 283 282 281 281 281 280 280 279 278 278 277 276 276 275 274 273 273 273 272 272 272 271 271 270 269 268 267 267 266 265 265 264 264 263 263 263 263 263 263 263 263 263 263 264 264 265 266 268 268 268 268 269 269 269 269 270
285 285 285 285 284 283 282 281 281 280 280 279 279 278 277 276 276 275 274 273 273 273 272 272 272 272 271 271 270 269 268 267 267 266 265 265 264 263 263 263 263 262 262 262 262 263 263 264 264 264 265 265 266 268 268 269 269 269 270 270 271 271
285 285 284 284 283 282 281 280 280 279 279 279 277 276 276 275 275 274 273 272 272 272 272 271 271 271 271 270 269 267 267 267 266 265 265 265 264 263 262 262 262 262 262 262 262 262 263 264 265 265 265 266 267 268 269 269 270 270 271 271 271 272
284 283 283 282 281 280 280 280 279 278 278 277 276 275 275 274 274 273 272 272 271 271 271 270 270 270 270 269 268 266 266 266 266 265 265 264 263 262 262 262 262 261 261 261 262 262 263 264 265 266 267 267 267 268 269 270 270 271 271 272 272 272
284 282 281 280 279 279 279 278 278 277 277 276 275 274 274 273 272 272 271 271 270 270 270 270 270 270 269 268 267 265 265 266 265 264 264 263 263 262 261 261 261 261 261 261 262 263 264 265 266 267 267 267 268 268 269 270 271 271 272 272 272 272
282 280 279 278 278 277 277 277 277 276 276 275 274 273 273 272 271 271 270 270 270 269 269 269 269 269 269 268 266 265 265 265 264 263 263 263 262 262 261 261 261 261 262 262 263 264 265 266 267 267 267 268 268 269 269 270 270 271 272 272 272 272
279 279 278 278 277 276 276 276 276 275 275 274 273 272 271 271 270 270 269 269 269 269 268 268 268 268 268 267 266 265 265 265 264 263 262 262 262 262 261 261 262 262 263 263 264 266 266 267 268 268 268 269 269 269 270 270 271 271 272 272 272 272
279 279 278 277 277 276 275 275 275 274 273 272 271 270 270 270 269 268 268 268 268 268 267 267 267 267 266 266 265 264 264 265 265 263 263 263 263 262 262 262 263 264 265 265 266 267 268 268 269 269 269 270 270 271 271 272 272 272 273 273 273 273
280 279 278 277 276 276 275 275 274 273 272 271 270 269 269 269 268 267 268 267 267 267 267 267 267 266 265 264 264 264 264 265 265 264 263 264 264 263 263 265 265 266 267 267 268 269 269 269 269 269 270 270 271 272 272 272 273 273 273 274 274 274
280 278 277 277 276 275 274 274 273 271 270 270 269 268 268 268 267 267 267 267 267 266 266 266 266 265 264 263 263 263 264 266 267 265 263 263 264 265 265 266 267 268 269 269 269 269 269 269 269 269 270 271 271 272 272 272 273 273 274 274 274 274
278 277 276 276 275 274 273 273 271 270 269 269 268 268 267 267 266 266 266 266 266 266 265 265 265 264 263 263 262 261 261 263 267 269 268 265 264 265 266 267 267 268 268 268 269 268 268 268 269 270 270 271 271 271 272 272 272 273 273 273 272 272
276 276 275 274 274 273 272 272 270 269 268 268 267 267 266 266 265 265 265 265 265 265 265 264 263 263 262 262 261 261 260 260 262 267 270 269 266 265 265 266 267 267 268 267 268 268 268 268 269 269 270 270 271 271 271 271 271 271 270 270 269 269
276 275 274 273 272 271 271 270 270 269 268 267 267 266 266 265 265 265 264 264 264 264 264 264 263 262 261 261 260 260 260 260 259 261 264 268 269 269 268 267 266 265 266 266 267 267 268 268 269 269 270 270 270 270 269 269 268 268 268 267 266 266
274 273 272 272 271 269 269 269 269 268 267 267 266 266 265 265 264 264 264 264 263 263 263 263 262 261 261 261 260 260 260 260 260 259 260 261 264 267 269 270 269 267 265 265 266 266 267 267 268 269 269 269 268 267 267 266 265 264 264 264 264 263
273 272 271 270 269 268 268 269 269 267 266 266 266 265 265 264 264 264 264 264 263 262 262 262 262 261 260 260 260 260 259 259 260 260 260 260 260 261 262 265 268 268 266 264 264 265 266 266 268 269 269 267 266 266 265 263 262 262 262 262 262 262
271 271 269 268 268 267 268 269 268 266 266 265 265 265 264 264 264 263 264 264 263 263 262 262 262 261 260 260 259 259 260 260 260 259 259 260 260 260 260 260 262 265 266 265 264 264 265 266 267 268 267 265 265 264 263 261 260 261 261 261 261 261

ECMWFFLT1_925_thetae_036.txt.gz
Theta_e
288 288 288 287 287 287 287 287 287 287 286 286 286 286 286 286 286 286 287 287 287 287 287 287 287 287 287 287 287 287 287 286 286 286 285 285 285 284 284 284 284 284 284 283 283 283 283 283 282 282 282 282 282 282 282 282 283 283 283 283 283 283
289 288 287 288 287 287 287 287 287 287 287 286 286 286 286 286 286 286 287 287 287 287 287 287 287 287 287 287 287 287 287 287 287 286 286 285 285 284 284 284 284 283 283 283 283 283 283 283 283 282 282 282 282 282 282 282 282 282 282 282 282 282
289 288 287 287 287 287 287 287 287 287 287 287 286 286 286 286 286 287 287 287 287 287 288 287 287 287 287 287 287 287 287 287 287 286 286 285 285 284 284 283 283 283 282 282 282 282 282 282 282 282 282 282 282 282 282 282 282 282 282 282 281 281
289 288 288 287 287 287 287 287 287 287 287 287 286 286 286 286 286 287 287 287 287 287 287 287 287 287 287 287 287 287 286 286 286 285 284 284 283 283 282 282 281 281 281 281 281 281 281 280 280 280 280 280 280 280 280 280 280 280 280 280 280 280
289 288 288 288 287 287 287 287 287 286 286 286 286 286 286 286 286 287 287 287 287 287 287 287 287 287 286 286 286 286 285 285 284 284 283 282 282 281 281 280 280 280 280 280 280 280 280 279 279 279 279 279 278 278 278 278 278 278 278 278 278 278
289 289 289 288 288 287 286 286 286 286 286 286 286 286 286 286 287 287 287 287 287 287 286 286 286 286 285 285 285 285 285 284 284 283 283 282 282 281 281 280 280 279 279 279 279 279 279 279 278 278 278 278 277 277 277 277 277 277 277 277 277 277
289 289 289 289 289 287 287 286 286 286 286 286 286 286 286 286 287 287 287 287 287 286 286 286 285 285 285 285 285 285 285 284 284 284 283 283 282 282 281 281 280 280 279 279 279 279 278 278 278 277 277 277 276 276 276 276 276 276 276 276 277 277
289 289 289 289 289 289 288 287 287 287 286 286 286 286 286 287 287 287 287 287 286 286 285 285 285 285 285 285 284 285 285 285 284 284 284 283 283 282 281 280 280 280 279 279 279 278 278 277 277 276 276 276 276 276 275 275 275 275 276 276 276 276
289 289 289 290 290 290 290 289 288 288 287 287 286 286 286 286 287 287 286 286 286 285 285 285 285 285 284 284 284 284 285 285 284 284 283 282 282 281 280 280 279 279 279 279 278 278 277 277 276 276 276 275 275 275 275 275 275 275 275 275 275 275
289 288 289 290 290 290 290 290 290 289 288 288 287 286 286 286 286 286 286 286 285 285 284 284 284 284 284 284 284 284 285 284 284 283 282 281 280 280 279 279 279 279 278 278 278 277 277 276 276 275 275 275 275 274 274 274 274 274 274 274 274 273
289 288 289 290 290 290 290 291 291 290 289 289 288 287 287 286 286 286 286 285 285 284 284 284 284 284 284 284 284 284 284 284 283 282 281 280 280 279 279 278 278 278 278 278 277 277 276 276 275 275 274 274 274 273 273 273 273 273 273 273 273 273
288 289 289 289 289 290 290 291 291 290 290 289 288 288 287 287 286 286 285 285 284 284 284 284 284 284 284 284 284 284 283 282 282 281 280 279 279 278 278 278 278 278 277 277 277 276 276 275 274 274 273 273 272 273 272 272 272 272 272 272 272 272
288 288 289 289 290 290 291 291 291 290 290 289 289 288 288 287 286 286 286 285 284 284 284 284 284 284 284 284 283 283 282 282 281 280 279 279 278 278 278 278 278 277 277 277 276 276 275 275 274 274 273 272 272 272 272 272 272 272 272 272 272 271
287 287 288 288 290 290 291 292 291 290 290 289 289 288 287 287 286 286 285 285 284 284 284 284 284 283 283 283 283 283 282 281 280 279 279 279 278 278 278 277 277 277 276 276 276 275 274 274 274 273 273 272 271 272 273 272 272 271 271 271 271 271
286 287 288 289 290 291 292 292 292 291 290 290 289 288 287 286 286 286 285 285 284 284 284 284 284 283 283 283 282 281 281 280 279 279 278 278 278 278 277 277 277 276 276 275 275 274 274 273 273 273 272 271 270 271 272 272 271 271 271 271 271 270
287 288 289 290 291 292 292 292 291 291 290 289 288 287 286 286 286 286 285 285 284 284 284 283 283 283 282 282 281 280 279 279 278 278 278 277 277 277 277 276 276 275 275 274 274 273 273 273 273 272 272 271 270 270 271 271 271 270 270 269 269 269
287 287 289 290 291 291 291 291 290 289 288 287 287 286 286 286 285 285 285 284 284 283 283 283 282 282 281 281 280 279 279 278 278 277 277 277 276 276 276 275 275 274 274 273 273 273 273 272 272 272 271 270 269 270 270 270 269 269 269 268 268 268
289 290 291 292 291 291 290 290 289 288 287 286 286 286 285 285 285 284 284 283 283 283 283 282 282 281 280 280 279 279 278 277 277 276 276 276 275 275 275 274 274 273 273 272 272 272 272 272 272 272 271 270 269 269 269 268 268 268 268 268 268 268
292 292 292 292 291 291 290 289 288 287 286 286 286 285 285 284 284 283 283 283 283 282 282 281 281 280 280 279 278 278 277 277 276 276 275 275 275 275 274 274 273 272 272 272 271 271 272 272 272 271 270 269 268 268 268 268 268 268 268 268 268 268
291 291 291 291 290 290 289 288 287 287 286 286 285 284 284 283 283 283 282 282 282 282 281 281 280 280 279 278 277 277 276 275 275 275 274 274 274 274 273 273 272 272 271 271 271 271 271 272 272 270 270 269 268 268 268 268 268 268 268 268 268 268
289 289 289 289 289 288 288 288 287 286 286 285 284 283 283 283 282 282 282 282 281 281 280 280 279 279 278 277 276 275 275 275 274 274 273 273 273 273 272 272 271 271 271 271 271 270 271 272 272 270 269 268 268 268 268 268 268 269 269 269 269 269
288 288 288 288 288 288 288 287 286 286 285 284 283 283 282 282 282 282 281 281 280 280 279 279 278 277 276 276 275 274 274 274 273 273 273 273 272 272 272 271 270 270 270 270 270 270 270 271 271 270 269 268 267 268 269 269 269 269 269 269 269 269
289 289 289 289 289 288 287 286 285 285 284 283 282 283 283 282 281 281 280 280 279 279 279 278 277 276 275 275 274 274 273 273 273 272 272 272 271 271 270 270 269 269 270 270 269 269 270 269 269 269 269 268 267 268 269 269 269 270 270 270 270 270
288 288 289 288 288 288 287 286 285 284 283 282 283 283 282 281 281 280 280 279 279 278 278 277 276 275 274 274 273 273 273 272 272 272 271 271 271 270 269 268 268 268 268 269 268 268 269 269 268 268 268 267 267 268 269 270 270 271 272 272 272 272
288 288 288 288 287 287 286 285 284 283 282 282 283 282 281 280 280 279 279 278 278 277 276 275 274 274 273 273 273 272 272 272 271 271 271 270 269 268 267 267 266 266 266 267 267 267 267 268 267 267 267 267 267 268 270 270 271 272 272 272 272 272
288 288 287 287 286 286 285 284 284 282 282 282 282 281 280 279 279 278 278 277 277 276 275 274 273 273 273 272 272 272 271 271 271 271 270 269 268 266 265 265 264 264 264 265 266 266 266 266 267 267 267 267 268 269 270 271 271 272 272 272 272 273
287 286 285 285 285 284 284 284 283 282 282 282 280 279 279 278 278 277 277 276 276 275 274 273 273 272 272 271 271 271 271 271 271 270 270 268 267 265 263 263 263 263 263 263 264 265 266 266 267 267 267 268 268 269 270 270 271 272 272 273 273 273
285 284 283 283 283 283 283 282 282 282 281 281 279 278 278 277 277 276 276 275 274 274 273 272 272 272 271 271 270 270 270 270 270 269 268 267 265 264 263 263 262 262 263 263 264 265 266 267 267 268 268 268 269 269 270 271 271 272 272 272 273 273
282 282 282 282 282 282 282 281 281 281 280 279 278 277 277 276 276 275 275 274 274 273 272 272 271 271 270 270 270 270 270 270 269 268 267 266 265 263 263 262 262 263 263 264 265 266 267 267 268 268 269 269 269 270 271 272 272 272 272 273 273 273
282 282 281 281 282 282 281 281 280 279 278 278 277 277 276 276 275 274 274 274 273 272 271 271 270 270 270 270 270 270 269 269 269 268 268 267 265 263 263 263 263 264 264 265 266 267 268 268 269 269 269 269 270 271 272 272 272 273 273 273 273 273
282 281 281 282 282 282 281 281 280 278 278 277 276 276 276 275 274 274 273 273 272 271 270 270 269 269 269 269 269 269 269 269 269 268 268 267 266 264 264 264 265 265 266 267 268 268 269 269 269 269 269 270 271 272 272 273 273 273 272 272 272 272
282 282 281 281 281 281 281 280 279 277 277 276 276 275 275 274 273 273 272 272 271 270 269 269 269 269 268 268 268 268 268 269 269 268 266 265 265 265 265 266 267 268 268 269 269 269 269 269 269 269 270 271 271 272 272 272 272 271 271 270 270 269
281 280 280 280 280 280 280 279 278 276 276 275 275 275 274 273 272 272 272 271 270 269 269 268 268 268 268 268 268 268 268 268 269 269 268 266 265 265 266 267 267 268 269 269 269 269 268 269 269 270 270 271 271 271 271 270 270 269 268 268 267 266
280 280 280 280 279 278 278 277 277 276 275 275 274 274 273 272 272 272 272 271 269 268 268 267 267 267 267 267 267 267 266 265 266 268 270 269 267 265 265 266 267 267 268 268 268 268 268 268 269 269 270 271 271 270 269 269 268 267 266 266 265 263
281 280 279 278 277 277 277 276 276 275 275 274 274 273 273 272 272 272 271 270 268 267 267 267 267 266 266 267 266 266 265 264 262 263 265 268 269 269 267 266 266 266 267 267 267 267 267 268 268 269 270 270 270 269 268 267 266 264 264 263 262 261
280 278 277 276 276 276 276 276 276 275 274 273 273 272 272 272 271 271 270 268 267 267 266 266 266 266 266 266 265 264 264 263 262 261 260 262 265 267 269 269 268 266 264 265 265 266 266 267 268 269 269 269 268 267 267 266 265 265 263 262 261 260
277 276 275 275 275 274 275 275 275 274 273 272 272 271 271 271 270 269 268 267 266 266 266 266 266 265 265 265 265 264 263 262 262 261 260 259 260 261 263 267 269 268 265 263 264 264 265 266 267 268 269 268 267 266 265 264 264 264 262 261 261 260
275 274 274 273 273 273 274 274 273 272 271 270 270 270 269 269 269 267 266 266 265 265 265 265 265 265 264 264 264 264 263 262 261 260 260 260 260 259 259 262 267 269 268 266 265 265 265 265 266 267 267 266 265 264 263 262 261 261 260 261 261 260

ECMWFFLT1_925_thetae_042.txt.gz
Theta_e
291 290 289 288 287 286 286 286 286 287 287 287 287 287 287 287 287 287 287 287 287 287 287 287 287 287 287 287 287 288 288 288 288 288 288 287 287 287 287 287 287 286 286 286 285 285 284 283 283 283 283 282 282 282 282 282 282 282 282 282 282 282
291 290 289 288 287 286 286 286 286 286 287 287 287 287 287 287 287 286 287 287 287 287 287 287 287 287 287 288 288 288 288 288 288 288 288 288 287 287 287 286 286 286 285 285 284 283 283 283 282 282 282 282 282 282 282 282 282 282 281 281 281 281
291 290 289 288 287 286 286 285 286 286 286 286 287 286 287 286 286 287 287 287 287 287 287 287 287 287 288 288 288 288 288 288 288 288 288 287 287 287 286 286 285 285 284 283 283 282 282 281 281 281 281 281 281 281 281 281 281 281 281 281 281 280
291 290 289 288 287 286 286 285 286 286 286 286 286 286 286 286 286 287 287 287 287 287 287 287 287 287 288 288 288 288 288 288 288 288 287 287 286 286 285 285 285 284 283 283 282 281 281 281 280 280 280 280 280 280 280 280 280 280 280 280 279 279
291 290 289 288 287 287 286 286 286 286 286 286 286 286 286 287 287 287 287 287 287 287 287 287 287 287 287 287 288 288 288 288 287 287 287 286 286 285 285 284 284 283 283 282 281 281 280 280 280 280 280 280 280 279 279 279 279 279 278 278 278 278
291 290 289 289 288 288 287 287 286 286 286 286 286 286 286 287 287 287 287 287 287 287 287 287 287 287 287 287 288 288 287 287 287 286 286 285 285 284 284 284 283 283 282 282 281 280 280 280 280 279 279 279 279 279 279 278 278 278 278 277 277 277
291 290 290 289 289 288 288 287 286 286 286 286 286 286 286 287 287 287 287 287 287 286 286 286 287 287 287 288 288 287 287 287 286 286 285 284 284 284 284 283 283 282 282 281 280 280 280 279 279 279 279 279 278 278 278 278 278 277 277 276 276 276
292 291 290 289 289 289 288 287 287 286 286 286 286 286 286 287 287 287 287 287 286 286 286 286 287 287 287 288 288 287 286 286 285 285 284 284 284 283 283 283 282 282 281 280 280 279 279 279 278 278 278 278 278 278 278 278 277 277 276 276 276 275
293 291 290 290 289 288 288 287 287 286 286 286 286 286 286 287 287 287 286 286 286 286 286 287 287 287 287 288 287 286 286 285 285 285 284 284 283 283 282 282 282 281 280 280 279 279 278 278 278 278 278 278 278 278 277 276 276 276 275 275 275 275
293 292 291 290 289 289 288 287 287 286 286 286 286 286 286 286 286 286 286 286 286 286 287 287 287 287 287 287 286 286 285 285 285 284 284 283 283 282 282 282 281 281 280 279 279 278 278 278 278 278 277 277 277 277 276 276 275 275 275 275 275 275
294 293 291 290 289 289 288 287 287 287 286 286 286 286 286 286 286 286 286 286 286 286 287 287 287 287 287 286 286 285 285 285 284 284 283 283 282 282 282 281 281 280 279 279 278 278 278 278 277 277 277 277 277 276 276 275 274 274 274 275 275 274
294 293 292 291 290 289 288 288 287 287 287 287 286 286 286 286 286 286 286 286 286 286 286 286 287 287 286 285 285 285 285 285 284 284 283 282 282 281 281 281 280 279 279 278 278 277 277 277 277 277 277 276 276 276 275 274 273 274 274 274 274 274
295 294 292 291 290 289 289 288 287 287 287 287 287 287 286 286 286 286 286 286 286 286 286 286 286 286 285 285 285 285 285 284 284 284 283 282 282 281 281 280 280 279 278 278 277 277 277 277 277 277 276 276 276 275 274 273 273 274 274 274 274 274
294 294 293 292 291 290 289 288 287 287 287 287 287 286 286 286 285 285 286 286 286 286 286 286 285 285 285 285 284 284 284 284 284 284 283 282 281 281 280 280 279 278 278 277 277 277 277 276 276 276 276 276 275 275 274 273 273 274 274 274 274 273
294 294 293 292 292 291 290 289 288 287 287 287 286 286 286 285 285 285 285 285 285 285 285 285 285 284 285 284 284 284 284 284 284 284 283 282 281 280 279 279 278 278 277 277 277 276 276 276 276 276 276 275 275 274 273 272 273 274 273 273 272 272
294 293 293 292 292 291 291 290 289 288 287 286 286 286 286 285 285 285 285 285 285 285 285 285 284 284 284 284 284 283 284 284 284 284 283 282 280 279 279 278 278 277 277 277 276 276 276 276 276 275 275 275 274 273 272 271 272 273 272 271 271 271
293 292 292 292 292 291 291 290 289 288 288 287 286 286 285 285 285 285 285 285 285 285 285 284 284 284 284 283 283 283 283 284 284 283 282 281 279 279 278 278 277 277 277 276 276 276 276 275 275 275 275 275 274 273 271 271 271 271 271 270 270 270
293 292 292 292 291 291 291 290 290 289 288 288 287 287 286 286 286 285 285 285 285 285 285 284 284 284 283 283 283 283 283 284 283 283 281 280 279 278 278 278 277 277 276 276 276 275 275 275 275 274 274 274 273 273 272 271 271 270 270 270 270 270
294 293 293 292 291 291 290 290 290 289 288 288 288 288 287 287 286 286 286 286 286 286 285 285 284 284 283 283 283 283 283 283 283 282 280 279 278 278 278 277 277 277 276 276 275 275 275 275 274 274 274 274 273 272 271 270 270 271 271 270 270 270
294 293 293 292 291 291 291 290 290 289 289 288 288 288 287 287 287 287 287 287 287 287 286 286 285 284 283 283 283 283 283 283 282 281 280 279 278 278 278 277 277 277 276 276 275 275 275 275 274 274 274 274 273 272 270 270 270 271 271 271 271 271
292 292 291 291 291 291 291 291 290 289 289 288 288 287 287 288 289 289 289 288 288 287 287 286 285 284 284 283 283 283 283 282 281 280 279 279 278 277 277 277 276 276 276 275 275 274 274 274 274 274 274 274 273 272 270 270 271 271 271 271 271 271
291 290 291 291 292 292 291 291 290 289 289 289 288 287 288 290 290 290 289 289 288 287 286 285 285 284 284 283 283 283 282 281 280 280 279 278 277 277 277 277 276 276 275 275 275 274 274 274 274 274 274 274 273 272 270 270 271 271 271 271 271 272
291 292 292 293 293 292 292 291 289 289 289 288 287 288 290 291 291 289 289 288 287 287 286 285 284 284 283 283 282 281 281 280 280 279 278 277 277 277 276 276 276 275 275 275 274 274 273 273 273 273 273 273 273 271 270 271 271 271 272 272 272 273
291 292 292 292 292 292 291 290 289 289 288 287 288 290 291 290 289 288 288 287 287 286 286 285 284 283 283 282 281 281 280 280 279 278 277 277 276 276 276 275 275 274 274 274 274 274 273 273 273 273 273 273 272 270 270 271 272 272 273 273 273 273
291 291 292 292 291 291 291 290 289 289 288 288 289 291 290 289 289 288 287 287 286 286 285 284 284 283 282 282 281 280 280 279 278 278 277 276 276 275 275 275 274 274 273 273 273 273 273 272 272 272 273 272 271 269 271 272 272 273 273 273 273 273
290 291 291 291 291 290 290 289 289 288 287 289 290 290 289 289 288 287 286 286 286 285 284 284 283 282 282 281 280 279 279 278 277 277 276 276 275 275 274 274 274 273 272 272 272 272 272 271 271 272 272 271 269 269 271 272 272 273 273 273 274 274
290 290 289 290 290 290 289 289 289 287 288 289 290 289 289 288 287 286 285 285 285 284 284 283 282 281 281 280 280 279 278 278 277 276 275 275 274 274 274 273 273 272 271 271 271 271 270 270 269 270 270 269 269 270 271 271 272 273 273 274 274 273
288 287 287 288 288 288 289 289 288 288 289 289 289 289 288 287 286 285 284 284 284 284 283 282 281 281 280 279 279 278 277 277 276 275 274 274 274 273 273 272 272 271 270 270 270 269 269 268 268 268 268 269 269 270 271 271 272 273 273 273 273 272
286 286 286 286 287 288 288 288 288 288 289 288 287 287 287 286 285 284 284 284 283 283 282 281 281 280 279 278 278 277 276 276 275 274 274 274 274 273 272 271 271 271 270 269 269 268 268 267 268 268 269 269 270 270 271 272 272 273 273 272 272 271
285 286 286 286 288 288 288 288 288 289 288 286 286 285 285 284 284 284 284 284 283 282 282 281 280 279 278 278 277 276 276 276 275 274 274 274 273 272 272 271 271 271 270 269 268 268 267 268 268 269 269 270 270 271 272 272 272 273 273 272 271 270
285 286 286 287 288 288 287 288 288 288 287 286 285 284 283 283 283 283 282 282 282 281 281 279 278 277 277 276 276 276 275 275 275 274 274 274 273 272 271 271 271 271 271 269 268 268 268 268 269 269 270 271 271 272 272 272 273 273 272 271 271 270
286 285 286 287 287 286 286 287 288 287 286 285 284 283 282 282 281 281 280 280 279 279 278 277 277 276 275 275 275 275 274 274 273 273 273 273 272 272 271 271 271 271 270 269 269 269 269 269 270 270 271 272 271 271 272 272 273 273 272 271 270 268
285 284 285 286 286 285 285 286 286 286 285 285 284 282 281 281 280 279 278 278 278 278 277 276 276 275 274 274 274 273 273 272 272 272 272 272 271 271 271 271 270 270 269 269 270 270 270 270 270 271 271 271 271 271 272 272 272 271 270 269 268 267
284 284 286 287 286 284 284 285 284 284 284 283 282 281 280 279 279 278 278 277 277 276 275 274 274 274 274 274 273 272 271 271 271 271 271 271 270 270 270 269 269 269 269 269 270 270 270 270 270 270 270 270 270 271 272 272 271 270 269 268 267 266
286 286 286 286 285 284 284 284 283 283 283 282 281 280 279 278 278 278 277 276 275 273 272 272 272 273 273 273 272 271 271 270 270 270 270 270 269 268 268 268 268 268 268 269 269 270 270 270 270 270 270 270 270 271 271 271 270 269 268 267 266 266
285 285 285 284 284 283 283 282 282 282 281 280 280 278 277 277 276 276 275 274 274 273 273 272 273 273 273 272 271 271 270 270 269 269 269 269 268 268 267 268 268 268 268 268 268 269 269 268 268 269 269 269 270 270 270 269 268 267 267 266 265 265
283 283 284 283 283 282 282 281 281 280 279 279 278 277 276 275 274 273 273 273 273 273 273 273 273 273 272 271 270 270 269 269 268 268 267 267 267 268 268 268 268 268 268 267 267 268 267 267 267 268 268 269 269 269 269 268 267 266 266 265 265 265
282 282 282 282 281 281 280 280 279 278 278 277 276 275 274 273 272 272 271 271 271 272 272 272 272 271 271 270 269 269 268 268 267 266 266 266 266 266 267 268 268 269 268 267 267 267 267 266 266 266 267 268 268 268 267 267 266 265 265 265 265 265

ECMWFFLT1_925_thetae_045.txt.gz
Theta_e
295 295 293 293 292 291 291 291 291 291 291 290 290 289 289 288 288 288 287 287 287 287 287 287 287 287 287 287 287 288 288 288 288 288 288 287 287 287 287 286 286 286 286 286 285 285 284 283 283 282 282 282 282 282 281 281 282 282 282 282 281 281
295 294 293 292 291 291 291 290 290 290 290 290 289 289 288 288 288 287 287 287 287 287 287 287 287 287 287 288 288 288 288 288 288 288 288 287 287 287 286 286 286 286 286 285 285 284 283 282 282 282 282 282 281 281 281 281 281 282 281 281 281 281
295 294 293 292 291 291 290 290 290 290 289 289 289 288 288 287 287 287 287 287 287 287 287 287 287 287 288 288 288 288 288 288 287 287 287 287 287 287 287 286 286 286 286 285 284 284 283 282 282 281 281 281 281 281 281 281 281 281 281 281 280 280
295 294 293 291 290 290 290 289 290 289 289 289 288 287 287 287 287 287 287 286 286 287 287 287 287 288 288 288 288 288 288 287 287 287 287 287 287 287 286 286 286 286 285 285 284 283 282 281 281 281 281 281 281 281 281 281 281 281 280 280 279 279
295 293 292 291 290 290 290 289 289 289 288 288 288 287 287 287 287 287 286 286 287 287 287 287 288 288 288 288 288 287 287 287 287 287 287 287 287 287 286 286 286 285 285 284 283 282 281 281 281 281 280 280 280 280 280 280 280 280 279 279 278 278
295 293 292 291 291 290 289 289 289 288 288 288 288 287 287 287 287 287 286 287 287 287 287 287 288 288 288 287 287 287 287 287 287 287 287 287 287 286 286 286 285 285 284 283 282 282 281 281 280 280 280 280 280 280 280 280 280 279 278 278 278 278
294 293 292 291 291 290 289 289 289 289 289 288 288 288 287 287 287 287 287 287 287 287 287 287 288 288 287 286 286 287 287 287 287 287 287 287 286 286 286 285 285 284 283 283 282 281 281 280 280 280 280 280 280 279 279 279 279 278 278 277 278 277
295 293 292 291 291 290 290 289 289 289 289 288 288 288 287 287 287 287 287 287 286 286 286 287 287 287 286 286 287 287 287 287 287 287 287 286 286 285 285 284 284 283 283 282 282 281 281 280 280 280 280 279 279 279 279 279 278 278 277 277 277 277
295 294 292 292 291 290 290 290 289 289 289 289 288 288 287 287 287 287 287 287 286 286 286 287 287 286 286 286 287 287 287 287 287 287 287 286 285 284 284 284 284 283 283 282 282 281 281 280 280 280 279 279 279 279 278 278 277 277 277 277 277 277
295 294 293 292 292 291 290 290 289 289 289 289 288 288 287 287 287 287 287 286 286 286 286 287 286 286 286 287 287 287 287 287 287 287 286 285 285 284 284 283 283 283 282 282 282 281 281 280 280 279 279 279 279 278 278 277 277 277 276 276 276 276
295 295 294 293 292 291 290 290 289 289 289 288 288 287 287 287 287 287 287 286 286 286 287 286 286 286 286 287 287 287 287 287 287 286 286 285 284 284 284 283 282 282 282 282 282 281 281 280 280 279 279 279 278 278 277 277 276 276 276 276 276 276
296 296 294 293 292 291 291 290 290 289 289 289 288 287 287 287 287 287 286 286 286 286 286 286 286 286 287 287 287 287 287 287 287 286 286 285 284 284 283 283 282 281 282 282 282 281 281 280 279 279 279 278 278 277 277 277 276 275 275 275 275 276
298 297 295 293 292 291 291 290 290 289 289 288 288 287 287 287 287 287 287 286 286 286 286 286 286 287 287 287 286 287 287 287 286 286 285 285 284 284 283 282 282 281 282 282 282 281 280 279 279 279 278 278 278 277 276 276 275 274 274 275 275 275
297 297 296 294 293 292 291 290 290 289 289 288 288 287 287 287 287 287 287 286 286 286 286 286 287 287 287 286 286 286 287 287 286 285 285 285 284 283 283 282 281 282 282 282 281 280 280 279 278 278 278 278 277 276 276 275 274 274 274 274 275 275
297 297 296 294 293 292 291 291 290 289 289 289 288 288 287 287 287 287 287 286 286 286 286 286 287 286 286 286 286 286 286 286 286 285 285 285 284 283 282 282 282 282 282 282 281 280 279 278 278 278 277 277 277 276 275 275 274 274 274 274 274 274
297 297 296 295 294 293 292 292 291 290 290 289 289 288 288 287 286 286 286 286 286 286 286 286 286 286 286 286 286 286 286 286 285 285 284 284 283 283 282 282 282 282 282 281 280 279 278 278 277 277 277 277 276 276 275 274 274 273 273 274 274 274
298 297 297 296 295 294 293 292 292 291 290 289 289 288 288 287 287 286 286 286 286 286 286 286 286 286 286 286 285 285 285 285 284 284 284 284 283 282 282 282 283 282 282 280 279 278 278 277 277 277 276 276 276 275 275 274 274 273 272 272 273 272
298 297 297 296 295 295 294 293 292 291 290 289 289 288 288 287 287 287 286 286 286 286 286 286 286 286 285 285 285 285 285 284 284 284 284 283 282 281 281 282 283 282 281 280 278 278 277 277 276 276 276 276 275 275 274 274 273 272 271 271 272 272
297 297 296 296 295 294 294 293 292 291 290 290 289 288 288 287 287 287 286 286 286 286 286 286 285 285 285 285 285 285 284 284 284 283 283 283 282 281 281 282 282 282 280 279 278 277 277 276 276 276 275 275 275 274 274 274 273 272 271 271 272 272
296 295 295 295 294 293 293 293 292 291 291 290 289 288 287 287 287 286 286 286 286 286 286 285 285 285 285 285 285 285 284 284 283 283 283 283 282 281 281 282 282 281 279 278 277 276 276 276 276 275 275 275 274 274 273 272 271 271 271 271 272 272
294 293 293 293 293 292 292 292 292 291 290 290 289 288 287 287 287 286 286 286 286 286 286 285 285 285 285 285 285 285 284 283 283 283 282 282 281 280 281 282 281 280 279 278 277 276 276 275 275 275 275 275 274 273 272 271 271 271 271 272 272 272
292 292 292 292 292 292 291 291 291 291 290 290 289 288 288 288 288 287 287 287 286 286 286 285 285 285 284 285 285 284 284 283 282 282 282 281 280 280 280 281 280 279 278 277 276 276 275 275 275 275 275 274 274 273 272 271 271 271 271 272 272 272
291 292 291 291 292 292 292 292 291 290 290 289 289 289 290 291 290 289 288 287 286 286 286 285 285 285 285 285 284 284 283 283 282 282 282 281 280 280 280 279 278 277 276 276 275 275 275 274 274 274 274 274 274 274 272 271 271 271 271 272 272 273
290 291 291 292 292 293 293 292 291 291 290 289 289 292 293 292 291 290 289 288 288 287 287 286 286 285 285 285 284 283 283 282 282 281 281 280 279 279 278 278 277 276 275 275 275 275 275 274 274 274 274 274 274 274 273 271 271 271 272 272 273 273
291 291 292 292 293 294 293 292 291 290 289 289 292 293 293 292 292 291 290 289 289 288 288 287 287 286 285 285 285 284 283 282 281 281 280 279 279 278 277 276 276 275 274 274 274 274 274 274 274 274 274 273 273 274 273 271 271 272 273 273 273 273
291 291 292 292 293 293 292 292 292 290 289 291 293 293 292 292 291 290 289 289 289 289 289 288 288 287 286 285 285 283 282 281 280 280 279 278 278 277 276 275 274 274 273 273 273 273 273 274 274 273 273 273 273 273 272 271 272 273 273 273 273 273
291 291 291 291 292 293 292 292 291 290 290 291 292 291 291 291 290 289 289 289 289 289 289 288 287 286 286 285 284 282 281 280 280 279 278 278 277 276 275 274 273 273 273 272 272 272 272 273 273 273 273 273 273 273 272 271 272 273 273 273 274 274
290 290 290 290 291 291 292 291 291 290 291 291 291 290 290 290 289 289 289 289 289 288 287 286 285 285 284 283 282 281 280 280 279 278 277 277 276 275 275 273 273 272 272 272 272 272 272 272 272 272 272 272 272 272 271 271 272 272 273 273 274 274
288 288 288 289 289 290 291 290 290 290 290 290 290 289 289 288 288 288 288 288 288 287 286 285 284 284 282 281 280 279 278 278 278 277 276 276 275 275 274 273 272 272 272 272 272 272 272 271 271 271 271 271 271 271 271 271 272 272 273 273 273 273
288 288 288 289 289 290 290 290 290 290 290 289 288 288 288 287 287 287 287 287 286 285 285 284 283 282 281 280 280 279 278 278 277 277 277 277 276 275 274 274 273 273 273 273 272 272 271 271 270 271 271 271 271 271 271 272 272 272 273 273 273 273
289 288 288 289 290 290 289 290 290 290 289 288 287 286 286 286 286 286 285 284 283 283 282 281 280 280 280 280 279 278 278 278 278 278 278 278 277 277 276 275 274 274 274 273 272 272 271 270 270 271 271 271 271 271 272 272 272 272 273 273 273 272
288 288 288 289 289 288 288 289 290 289 288 287 286 285 285 285 284 284 283 282 282 281 280 279 278 278 277 277 276 276 275 275 276 276 277 277 277 277 276 275 274 273 273 273 272 272 271 271 270 270 271 271 272 272 273 273 273 273 273 274 273 272
287 286 287 288 288 287 288 288 288 287 287 286 285 285 284 283 282 282 281 281 281 280 279 278 277 276 274 274 273 273 272 272 273 274 275 275 275 276 275 274 273 272 272 272 271 271 271 270 270 271 271 272 272 273 273 273 273 273 273 273 272 271
286 286 287 287 287 286 286 286 286 286 285 285 284 283 282 282 281 281 280 280 279 278 277 276 275 274 273 272 272 271 270 270 271 272 273 273 274 274 274 273 273 272 271 271 271 271 271 271 271 271 272 272 273 273 272 272 272 273 273 272 272 270
287 287 287 286 285 285 285 285 285 284 284 284 283 283 282 281 280 280 280 279 278 277 276 275 274 273 272 272 271 270 270 270 270 271 272 272 273 272 272 272 272 271 271 271 271 272 272 272 272 272 272 272 272 272 272 272 272 272 272 271 271 269
286 286 285 285 284 284 284 283 283 283 282 282 282 281 281 280 280 279 278 277 277 276 276 275 274 273 272 271 271 270 270 270 270 271 271 272 271 271 271 271 271 271 270 270 270 271 271 272 272 272 272 272 272 271 271 271 272 271 271 271 270 268
285 284 284 284 284 283 282 282 281 281 281 280 280 279 279 279 278 277 277 276 275 275 275 274 273 272 271 271 270 270 270 270 270 270 270 270 270 270 270 270 270 270 270 269 269 269 270 270 271 270 270 270 270 271 271 271 271 270 270 269 268 267
284 284 283 283 283 282 281 281 280 280 279 279 278 278 278 277 277 276 275 274 274 273 273 272 272 271 271 270 270 269 269 268 268 268 268 268 269 269 269 269 268 269 269 268 268 268 268 268 269 269 269 270 270 270 271 270 270 269 269 268 267 266

ECMWFFLT1_925_thetae_048.txt.gz
Theta_e
296 296 295 295 295 295 295 295 295 294 294 294 293 292 292 291 291 290 290 290 289 289 289 288 288 288 288 287 287 288 288 288 288 288 288 287 287 287 287 287 287 286 286 286 286 286 286 286 285 285 284 283 283 282 282 282 282 282 282 282 282 282
295 295 295 294 294 294 294 294 294 293 293 292 292 292 291 291 290 290 289 289 289 289 288 288 288 288 287 287 288 288 288 288 288 288 288 288 287 287 287 287 286 286 286 286 286 286 285 285 285 284 284 283 283 282 282 282 282 282 282 282 281 281
295 295 294 294 293 293 293 293 293 293 292 292 291 291 291 290 290 289 289 289 288 288 288 288 287 287 287 288 288 288 288 288 288 288 288 288 287 287 286 286 286 286 286 286 286 285 285 285 284 284 283 283 282 282 281 281 281 281 281 281 281 281
295 294 294 293 293 292 292 293 292 292 292 291 291 291 290 290 289 289 289 288 288 288 288 287 287 287 288 288 288 288 288 288 288 288 288 287 287 286 286 286 286 286 286 286 286 285 285 285 284 284 283 282 282 281 281 281 281 281 281 281 281 281
295 294 293 292 292 292 292 292 292 291 291 291 290 290 290 289 289 288 288 288 288 288 287 287 287 287 288 288 288 288 288 288 288 288 288 287 287 286 286 286 286 286 286 286 286 285 285 284 284 283 283 282 282 281 281 281 281 281 281 281 280 280
294 293 292 292 291 291 291 291 291 291 291 290 290 290 289 289 288 288 288 288 287 287 287 287 287 288 288 288 288 288 288 288 288 288 287 287 287 287 287 286 286 286 286 286 285 285 284 284 283 283 282 282 282 281 281 281 280 280 280 280 280 279
294 293 292 291 291 291 291 291 291 290 290 290 289 289 288 288 288 288 287 287 287 287 287 287 287 288 288 288 288 288 288 288 288 287 287 287 287 287 287 287 286 286 286 286 285 285 284 284 283 283 282 282 281 281 281 280 280 280 280 280 279 279
294 293 292 291 291 291 290 290 290 290 290 290 289 288 288 288 288 287 287 287 287 287 287 287 288 288 288 288 288 288 288 288 288 287 287 287 287 287 287 286 286 286 286 286 285 284 284 284 283 283 283 282 281 280 280 280 280 280 280 279 279 279
294 293 292 291 291 290 290 290 290 290 289 289 289 288 288 288 288 287 287 287 287 287 287 287 288 288 288 288 288 288 288 288 288 287 287 287 287 287 287 286 286 286 286 285 285 284 284 284 284 283 283 282 281 280 280 280 279 279 279 279 279 279
295 293 292 292 291 290 290 290 289 289 289 289 289 288 288 288 287 287 287 287 287 287 287 287 288 288 287 288 288 288 288 288 287 287 287 287 287 287 286 286 286 286 286 285 285 284 284 284 284 283 282 281 280 280 279 279 279 279 279 279 279 279
296 293 292 292 291 290 290 289 289 289 289 289 289 288 288 288 287 287 287 287 287 287 287 287 287 287 287 287 288 288 288 287 287 287 287 287 287 287 286 286 286 286 285 285 284 284 284 284 284 283 281 280 280 279 279 279 279 279 279 279 279 279
296 293 293 292 291 290 290 289 289 289 289 289 289 288 288 288 287 287 287 287 287 286 287 287 287 286 286 287 287 287 287 287 287 287 287 287 287 287 286 286 286 285 285 285 284 284 284 284 283 282 281 280 280 279 279 279 279 279 278 278 278 278
296 294 293 292 291 290 290 289 289 289 289 289 289 288 288 288 287 287 287 287 287 286 286 286 286 286 286 287 287 287 287 287 287 287 287 287 287 287 286 286 285 285 285 284 284 284 284 283 282 281 280 280 279 279 279 278 278 278 278 278 278 278
297 294 293 292 292 291 290 290 289 289 289 289 288 288 288 288 287 287 287 287 286 286 286 286 286 286 286 286 286 287 287 287 287 287 287 287 287 287 286 286 285 285 285 284 284 284 283 282 281 280 280 279 279 278 278 278 278 278 278 278 277 277
297 295 294 293 292 291 291 290 290 289 289 289 288 288 288 288 287 287 287 287 286 286 286 286 286 286 286 286 286 287 287 287 287 287 287 287 287 286 286 286 285 285 284 284 284 284 283 282 281 280 279 279 279 278 278 277 277 277 277 277 276 276
296 296 295 294 293 292 291 291 290 290 289 289 288 288 288 287 287 287 287 287 286 286 286 286 286 286 286 286 286 286 287 287 287 287 287 286 286 286 286 286 285 285 284 284 284 283 282 281 280 279 279 279 278 278 277 277 277 277 277 276 276 276
296 296 296 295 294 293 292 291 291 290 289 289 289 288 288 288 287 287 287 287 286 286 286 286 286 286 286 285 286 286 286 287 287 287 286 286 286 286 286 285 285 285 284 284 283 283 282 281 279 279 279 279 278 277 277 276 276 276 276 276 275 275
296 297 296 296 295 294 293 292 291 291 290 289 289 288 288 287 287 287 287 286 286 286 286 286 286 286 286 285 285 286 286 286 286 286 286 285 285 285 285 284 284 284 284 284 283 283 282 280 279 279 279 278 277 277 276 276 276 276 276 275 275 275
297 297 297 297 295 294 294 293 292 291 290 289 289 288 288 287 287 287 287 286 286 286 286 286 286 286 286 285 285 286 286 286 286 286 285 285 285 285 284 284 284 284 284 284 283 282 281 280 279 279 279 278 277 276 276 276 275 275 275 275 274 274
298 297 297 297 296 295 294 293 292 291 290 290 289 288 288 288 287 287 287 286 286 286 286 286 286 286 286 285 285 286 286 286 286 286 285 285 285 285 284 284 283 283 284 284 283 281 280 279 279 278 278 278 277 276 275 275 275 275 275 274 273 273
297 297 297 296 296 295 295 294 293 292 290 290 289 289 288 288 288 287 287 287 287 286 286 286 286 286 286 285 285 286 286 286 286 285 285 285 284 284 284 283 282 283 283 283 283 281 280 279 279 278 278 278 276 276 275 275 274 274 274 274 273 272
297 296 296 296 295 295 295 294 293 292 291 290 289 289 289 289 289 288 288 287 287 286 286 286 286 286 286 286 285 285 285 285 285 285 284 284 283 283 282 282 282 282 282 283 282 281 280 279 279 278 278 277 276 275 275 274 274 274 274 273 272 272
295 295 295 295 295 294 294 294 293 292 291 290 289 289 290 290 290 289 288 288 287 287 286 286 286 286 286 286 285 285 285 285 285 284 284 283 283 282 281 281 281 281 282 282 281 280 279 279 279 278 277 277 276 275 274 274 274 275 274 273 272 271
293 293 293 293 294 294 294 293 293 292 291 290 290 292 292 291 290 289 288 288 287 287 287 286 286 286 286 285 285 285 284 284 284 283 283 282 281 281 281 280 280 280 281 281 280 280 279 279 279 278 277 277 276 275 274 274 275 275 274 272 271 271
291 291 292 292 292 293 293 293 292 291 291 291 293 294 293 291 290 289 288 288 287 287 287 286 286 286 286 285 285 284 284 283 283 282 281 281 280 280 279 279 279 279 279 279 280 280 279 279 279 278 277 276 276 275 275 274 274 274 273 272 272 272
291 290 291 291 291 292 292 292 292 291 291 293 294 294 293 292 291 290 289 288 288 287 287 286 286 286 285 285 285 284 283 283 282 281 281 280 280 279 279 279 278 278 278 278 279 279 279 279 278 278 277 276 276 275 274 274 274 273 273 273 272 272
291 290 290 290 291 292 292 292 292 292 292 294 294 294 293 293 291 290 290 289 289 288 287 287 286 286 285 285 284 284 283 282 281 280 280 279 279 278 278 278 277 277 277 277 278 278 279 278 278 277 277 276 275 274 274 274 273 273 273 274 273 273
291 290 290 290 290 291 292 292 293 293 293 294 294 293 293 292 291 291 291 290 290 289 288 288 287 286 286 285 284 284 283 283 282 281 280 279 278 278 278 277 276 276 275 276 277 278 277 277 277 276 276 275 275 274 274 274 273 273 273 274 274 274
291 290 290 291 291 292 293 293 293 293 293 293 292 292 292 291 291 291 290 290 290 289 288 288 288 287 286 285 284 283 282 282 281 280 279 278 278 277 276 276 275 275 274 275 276 276 276 276 275 275 274 274 274 274 273 273 273 272 272 273 273 273
291 290 291 292 292 292 292 292 292 292 292 292 291 291 290 290 290 290 289 289 288 288 288 288 287 286 286 285 284 283 283 282 281 280 280 281 280 279 277 276 276 276 276 276 276 275 274 274 274 274 275 275 274 274 273 273 273 272 272 272 272 272
291 291 291 292 292 292 291 291 291 291 290 290 289 289 288 288 288 288 287 287 286 286 286 286 285 285 284 284 283 283 282 281 280 280 280 280 280 279 278 277 277 277 277 277 276 276 275 275 276 276 276 275 274 273 273 273 272 272 272 272 272 272
290 290 290 291 290 290 289 289 289 289 288 288 287 287 287 286 286 286 285 285 284 284 284 283 283 282 282 281 281 280 279 278 278 277 277 277 276 276 276 276 276 277 276 276 276 276 276 276 276 276 274 273 273 273 272 272 272 272 272 272 273 273
288 288 289 289 288 288 288 288 287 287 287 287 287 286 286 285 285 285 284 284 284 283 282 282 281 281 280 279 278 278 277 276 276 275 275 274 274 274 274 274 274 274 275 275 275 275 274 274 273 273 272 273 273 273 273 273 273 274 274 274 274 274
288 287 287 287 287 287 287 286 286 286 286 286 286 285 285 284 284 284 284 283 283 282 281 281 280 279 279 278 277 276 275 274 274 274 274 273 273 273 273 273 273 273 273 273 273 273 273 272 272 272 272 273 273 273 274 274 274 275 275 274 274 274
288 287 286 286 286 286 285 285 285 285 285 285 284 284 284 283 283 283 282 282 281 280 280 279 279 278 277 277 276 275 274 273 272 272 273 273 273 273 272 273 273 273 273 273 273 273 273 272 272 272 272 273 273 274 274 274 275 275 275 274 274 274
286 286 285 285 285 284 284 284 284 284 284 284 283 283 282 282 282 281 281 280 279 279 278 278 278 277 277 276 275 274 274 273 272 272 272 272 272 272 272 273 273 273 273 273 273 274 274 273 273 273 274 274 274 274 274 274 275 274 274 274 274 273
285 285 284 284 283 283 283 283 283 283 282 282 282 282 281 281 280 280 279 278 278 277 277 277 276 276 275 275 274 273 273 272 272 271 271 271 271 271 272 272 272 272 273 273 273 273 274 274 274 274 274 274 274 274 274 274 274 273 273 273 273 273
284 283 283 283 282 282 282 281 281 280 280 280 280 280 279 279 278 278 277 277 276 275 275 275 274 274 274 273 273 272 272 271 271 270 270 270 270 270 270 270 270 271 271 271 272 272 272 272 272 272 273 273 273 273 274 273 273 272 272 272 272 272